GEFSMW_500_meanwind_132.txt.gz
Wind_Speed
21 20 19 20 22 22 22 24 24 23 23 24 24 24 24 24 24 24 24 24 24 25 25 25 25 24 24 24 25 24 24 24 24 24 23 23 24 23 24 24 25 25 25
21 21 21 21 21 22 23 24 24 24 25 24 25 25 25 25 25 25 24 23 23 23 23 24 24 24 25 25 25 25 24 24 24 24 23 23 24 24 24 24 25 26 26
22 21 20 21 22 23 23 23 24 25 25 25 25 25 25 25 25 24 23 23 23 23 23 24 25 25 25 24 24 24 23 23 23 23 23 23 23 24 25 25 25 25 26
22 21 21 20 21 21 22 22 24 24 25 25 26 25 25 25 24 24 23 23 23 24 25 24 25 25 25 24 24 25 24 24 23 23 23 23 24 24 24 25 25 25 25
23 22 21 20 21 21 22 23 24 24 24 25 25 25 25 24 23 24 24 23 23 24 24 25 26 26 26 25 25 25 25 24 24 24 24 24 24 25 25 25 25 25 25
22 22 22 22 22 23 24 24 24 24 25 25 25 25 25 25 24 24 24 23 23 24 24 25 26 26 26 26 25 25 25 24 24 24 24 24 24 25 25 26 26 25 25
21 22 22 22 23 24 24 24 25 26 26 25 25 26 26 25 25 25 25 24 23 24 23 24 24 24 25 26 26 26 25 25 26 26 25 25 25 25 26 26 26 26 25
21 22 23 22 22 24 25 26 27 28 28 28 27 26 26 26 26 26 26 25 24 24 23 23 23 24 25 25 26 26 26 26 26 26 26 26 26 26 26 27 27 27 26
23 23 23 23 23 24 25 26 27 28 28 27 26 26 27 27 26 26 26 25 25 25 24 24 23 24 24 25 26 26 26 26 27 27 27 27 27 27 27 27 27 27 27
23 23 24 25 25 25 25 26 27 27 27 27 27 27 27 27 27 27 26 26 25 24 25 25 25 25 26 27 27 27 28 28 28 28 28 28 28 28 27 27 26 26 26
24 24 25 25 25 25 26 26 27 27 27 27 27 27 27 27 27 26 25 25 25 25 25 25 25 26 26 27 28 28 29 29 29 29 28 28 28 27 27 27 26 25 25
24 25 25 25 25 26 27 27 27 27 27 27 27 27 27 27 27 26 26 26 26 25 25 25 25 26 26 26 26 27 28 28 28 28 28 28 27 27 27 26 25 25 24
25 25 25 25 26 27 27 28 28 28 28 28 27 27 27 27 26 26 26 26 25 26 26 26 26 25 26 26 26 26 26 26 26 26 26 26 26 25 25 25 24 24 23
25 26 26 26 27 27 28 28 28 28 28 28 28 27 27 26 27 27 26 25 25 25 25 25 25 25 25 25 25 25 24 24 24 24 23 24 24 24 24 23 23 23 22
25 26 25 26 26 27 28 28 28 28 28 28 27 27 26 26 26 26 25 25 24 24 24 24 23 23 23 23 23 23 22 22 22 22 22 22 22 22 22 22 21 21 21
23 24 25 25 25 26 27 27 27 28 27 27 27 26 25 25 25 25 24 24 23 23 24 22 22 21 21 21 20 20 20 20 21 21 22 21 20 20 19 19 19 19 19
24 23 24 24 25 27 26 26 27 27 27 27 26 26 25 25 25 25 24 24 23 23 22 21 21 20 20 19 19 19 18 18 19 19 18 18 17 17 16 16 16 16 16
23 24 24 24 25 25 25 25 25 25 25 24 25 25 25 24 24 23 23 23 22 21 20 19 19 19 19 19 18 17 16 15 16 15 14 15 14 14 14 14 14 14 13
22 22 23 23 24 24 24 24 24 23 22 22 21 22 22 22 21 21 20 19 19 19 18 17 17 17 17 17 16 15 14 13 12 11 11 11 11 11 12 12 11 10 11
21 20 21 21 22 22 23 22 21 20 20 20 20 19 18 18 18 17 16 16 16 16 16 15 15 14 14 13 13 12 12 11 9 9 9 9 9 9 9 9 9 8 8
19 19 19 19 20 21 21 21 20 19 19 18 18 17 16 16 15 14 14 13 13 14 13 13 13 12 11 10 9 9 8 8 8 8 7 7 7 7 7 7 7 6 6
17 18 17 18 18 18 18 17 17 17 16 15 15 14 14 13 12 12 11 11 11 11 10 10 10 9 8 7 6 6 6 6 7 7 6 5 6 6 6 6 6 5 5
16 16 16 16 16 16 15 14 14 14 14 14 13 12 11 10 10 9 9 9 8 8 7 7 7 7 6 6 5 5 5 4 5 6 6 6 6 6 6 6 7 6 6
14 14 14 15 14 13 12 12 12 12 11 11 11 10 9 8 8 8 8 7 6 5 4 4 4 4 4 4 4 4 5 5 5 5 5 6 6 6 6 6 7 7 6
11 11 11 12 11 11 10 10 10 10 10 9 9 8 7 6 5 5 4 4 4 3 2 2 2 4 4 5 5 5 5 6 6 6 7 7 7 7 7 7 7 7 7
9 9 9 9 9 8 8 8 8 8 7 7 6 5 4 3 2 2 2 1 0 0 1 2 2 4 5 5 6 7 6 6 7 7 8 8 8 8 8 8 8 8 8

GEFSMW_500_meanwind_138.txt.gz
Wind_Speed
19 19 18 16 18 18 18 19 20 20 19 21 22 22 22 21 21 22 22 22 21 21 21 20 20 21 23 23 23 24 23 23 23 23 23 23 23 23 23 23 24 24 24
19 19 19 19 18 19 20 19 20 20 21 21 22 22 22 21 21 21 21 20 20 20 20 20 20 21 22 23 23 24 24 22 23 24 24 23 23 24 24 23 23 23 23
20 19 18 19 19 20 20 20 21 21 21 22 22 22 22 22 21 20 20 20 20 20 20 20 21 21 22 22 22 23 22 22 22 23 23 24 24 24 24 24 23 22 22
18 18 19 20 19 20 21 21 21 21 22 22 23 23 22 22 22 21 21 20 20 20 21 21 22 22 21 21 22 22 22 22 23 24 24 24 24 23 23 23 22 22 21
20 19 19 20 20 21 21 22 21 22 22 23 23 23 23 23 23 23 23 21 21 22 22 22 21 21 21 22 22 22 22 22 22 23 23 23 23 22 22 22 22 22 22
21 20 20 20 19 20 21 21 22 22 23 23 24 24 25 25 25 24 23 23 23 22 22 22 21 22 22 22 21 22 22 22 22 22 22 23 23 22 22 22 22 22 21
23 22 21 20 19 19 20 21 21 23 24 24 26 26 26 25 25 24 24 23 23 21 21 20 20 21 22 22 22 22 22 22 22 22 22 23 22 22 22 22 22 22 22
24 23 22 21 20 20 20 21 22 23 25 25 26 26 26 26 25 25 24 24 23 22 21 20 20 20 20 20 21 22 22 23 23 23 23 23 23 23 22 22 22 22 22
24 24 24 22 22 21 21 22 23 24 25 25 26 27 26 26 25 25 25 24 24 23 22 22 21 21 21 20 20 21 22 23 24 24 24 24 24 24 24 23 23 23 22
24 24 23 22 22 21 22 22 23 24 25 26 26 26 25 25 24 24 24 24 24 23 22 21 20 20 20 21 21 21 22 23 23 24 24 25 25 25 25 24 24 24 23
21 22 22 22 21 21 21 23 24 24 25 26 26 25 25 24 24 24 24 24 23 22 22 21 20 21 21 22 21 21 21 21 22 23 24 24 25 25 25 25 24 24 24
19 18 20 21 22 22 22 23 23 24 25 25 25 25 25 25 25 24 24 24 23 22 21 21 21 21 22 22 21 21 21 21 21 22 22 23 23 23 23 23 24 24 24
19 20 21 22 22 22 23 23 23 24 24 24 24 24 25 25 24 24 24 23 23 22 21 21 21 21 21 21 20 20 20 21 21 21 22 22 22 22 22 22 22 23 23
19 19 20 21 21 21 22 22 23 23 24 24 24 24 24 24 23 23 23 22 22 21 21 21 21 21 20 20 19 19 19 19 19 19 20 21 21 21 21 21 21 21 22
20 19 19 20 21 22 22 23 23 24 24 25 25 25 24 23 23 23 22 21 20 20 20 20 21 20 20 19 18 18 18 18 18 18 18 18 19 19 20 20 20 20 20
21 20 20 21 21 21 22 22 23 23 23 23 23 23 23 22 22 21 21 21 21 21 21 20 20 20 19 18 18 17 17 18 17 17 17 17 17 17 18 18 18 18 18
20 20 20 20 20 21 22 21 21 21 21 22 21 22 22 21 20 21 21 21 20 20 20 20 20 19 19 18 17 17 17 16 15 14 14 14 15 15 15 15 16 17 17
20 19 19 20 20 21 20 19 19 19 19 19 20 20 20 19 19 19 19 19 19 19 19 19 19 18 17 17 16 15 14 13 13 13 12 12 13 13 13 14 13 14 14
18 18 18 18 19 19 19 19 18 18 18 18 18 18 18 17 17 17 16 16 17 17 17 16 16 15 14 14 13 13 13 12 12 11 11 11 11 11 11 11 11 11 11
17 17 16 16 17 18 18 18 18 18 17 17 17 17 16 16 15 14 14 14 14 13 13 13 12 12 11 11 11 11 11 11 10 10 10 9 10 10 10 9 9 9 9
15 14 14 15 15 16 16 16 16 16 15 14 14 14 13 13 12 12 13 12 11 10 10 9 9 9 9 9 9 9 9 9 8 8 8 8 8 8 8 8 8 8 8
12 12 13 13 14 14 15 15 15 14 13 12 12 11 11 11 10 11 10 10 9 8 7 7 7 7 7 7 7 7 8 8 7 7 7 8 7 7 7 7 7 8 8
10 11 12 12 12 12 13 13 13 12 11 11 10 9 9 9 9 8 8 7 7 7 7 6 6 6 6 5 6 6 6 6 7 6 6 7 6 6 7 7 8 8 8
9 10 10 11 11 10 11 11 10 10 9 9 9 8 8 8 7 6 5 5 6 6 6 5 5 5 5 5 5 4 4 4 5 7 7 6 6 7 7 8 8 8 8
9 9 9 9 9 9 9 9 9 9 8 7 7 6 6 5 5 4 3 3 4 4 4 4 5 5 5 4 4 4 4 5 5 6 6 6 8 8 8 8 8 8 7
8 8 8 8 8 8 8 9 8 7 7 6 5 5 5 4 3 3 3 3 2 1 2 3 4 4 4 4 4 5 5 5 6 6 7 7 8 8 9 8 8 8 8

GEFSMW_500_meanwind_144.txt.gz
Wind_Speed
20 20 20 21 20 18 18 18 19 20 19 19 20 21 21 22 23 23 24 25 24 24 24 24 23 23 22 23 24 25 26 26 26 26 26 26 25 25 25 26 26 26 26
21 20 21 20 20 20 19 19 19 19 19 20 21 22 22 22 24 24 24 24 24 23 24 24 23 23 22 23 24 25 26 26 26 25 25 26 26 26 25 25 25 26 25
22 22 21 21 21 20 19 19 20 20 21 21 21 22 22 23 24 24 24 24 23 23 23 23 23 23 23 23 23 24 25 26 26 25 26 26 25 26 26 26 26 26 26
23 22 22 23 22 21 21 20 20 21 21 22 22 23 23 23 24 24 23 24 24 24 24 24 24 24 23 23 24 25 26 26 27 27 27 27 27 26 26 27 27 26 26
24 23 23 23 22 21 21 21 21 21 22 23 23 23 24 24 25 24 24 24 24 24 24 25 25 25 25 25 25 26 26 27 27 27 27 27 27 28 28 27 28 27 27
25 24 24 24 23 23 24 23 23 23 23 24 24 24 25 26 25 25 26 26 26 26 26 25 26 26 25 25 25 25 25 26 26 25 26 27 27 27 26 27 27 27 27
23 24 24 25 24 25 25 25 26 25 23 23 23 24 25 26 26 26 27 27 28 28 27 26 26 26 26 25 25 25 26 26 25 25 25 26 26 26 26 26 25 25 25
22 23 25 24 25 26 26 25 25 25 25 24 24 25 25 26 26 27 28 28 27 27 26 26 27 27 26 25 25 25 26 26 26 26 25 25 25 25 25 25 26 26 26
23 23 24 24 25 25 26 26 25 25 26 25 25 25 25 26 26 27 28 28 28 27 26 26 27 26 26 25 25 26 24 24 24 24 24 25 26 26 25 25 26 27 27
23 22 23 24 24 24 25 25 25 25 25 25 25 25 25 25 26 27 28 28 28 27 26 26 27 27 26 26 25 25 24 23 23 23 24 24 25 25 26 27 26 27 27
22 22 22 22 22 23 25 24 24 24 24 25 25 25 25 25 26 27 27 27 27 27 26 26 26 26 26 26 25 24 24 23 24 23 24 24 24 25 25 26 26 27 27
21 21 21 21 22 23 23 23 23 23 23 24 24 25 25 25 26 26 27 26 26 26 26 25 25 26 25 25 24 24 24 24 24 24 23 24 24 24 24 25 25 26 26
21 21 22 22 22 23 22 21 22 22 23 24 24 25 26 26 26 26 26 25 25 25 25 25 25 25 24 24 24 24 23 24 23 23 23 23 23 23 24 24 23 24 24
21 22 23 22 22 22 22 21 21 22 23 24 24 25 25 25 25 25 25 24 23 23 23 23 23 23 23 23 23 23 22 22 23 23 22 22 21 22 23 22 22 23 23
20 20 21 21 21 21 20 21 22 22 22 23 24 23 23 23 23 23 24 23 23 22 22 21 21 21 22 22 21 21 21 21 21 21 22 21 21 22 23 23 23 22 22
19 19 19 19 20 20 20 21 22 22 22 22 23 23 23 23 23 23 23 22 22 21 21 21 21 21 21 20 20 20 20 20 20 20 20 20 21 22 22 22 22 22 22
18 18 18 19 20 20 21 21 22 22 21 21 22 21 21 22 22 22 21 21 20 20 20 21 21 20 20 19 19 19 18 18 18 18 18 19 19 18 19 19 19 19 19
17 18 19 19 19 20 20 20 21 21 20 19 19 19 19 19 20 19 19 20 20 20 20 19 19 19 19 18 18 18 17 17 17 17 17 17 17 17 17 17 17 17 17
16 17 17 17 17 17 17 18 18 18 18 18 17 17 18 17 17 18 18 18 18 18 18 18 17 17 16 16 16 16 16 16 15 15 15 15 16 15 15 16 16 16 16
15 16 16 15 15 16 16 17 17 17 17 17 17 16 16 15 15 15 16 16 16 17 17 16 15 14 14 14 13 13 14 13 13 13 13 13 12 13 13 13 13 13 13
14 13 13 14 14 15 15 15 15 15 15 15 15 15 14 14 14 14 14 14 14 14 14 13 12 12 12 12 12 12 11 11 11 11 12 11 11 10 10 10 10 11 11
11 12 13 13 13 13 13 12 12 12 12 12 13 12 12 12 12 11 11 12 11 11 10 10 10 10 9 10 10 10 9 9 9 9 9 9 9 9 9 9 9 9 9
9 10 11 11 11 10 10 10 10 9 9 10 9 9 10 9 10 9 10 10 9 9 8 8 8 9 8 8 8 8 8 8 7 7 7 8 8 8 8 8 8 8 8
8 8 9 9 9 8 8 9 8 8 8 8 8 8 8 8 8 8 8 8 8 8 8 7 7 7 7 7 7 7 7 7 7 6 6 6 6 7 7 6 6 6 7
7 8 8 8 8 7 8 7 8 8 7 7 7 8 8 7 7 7 7 7 7 6 6 6 6 6 6 5 5 5 5 5 5 5 4 5 5 6 6 6 6 5 5
6 7 7 7 6 6 7 7 7 7 7 6 6 7 7 7 7 7 7 6 6 5 5 5 4 4 5 5 5 4 3 3 4 4 4 3 3 4 5 5 6 5 5

GEFSMW_500_meanwind_150.txt.gz
Wind_Speed
26 25 25 25 25 25 26 25 25 25 26 26 26 25 24 23 23 24 24 24 25 25 25 25 26 26 26 27 27 26 27 27 27 27 27 27 27 27 27 27 27 26 26
26 26 26 26 25 25 25 26 25 25 25 25 25 24 24 23 23 24 24 24 24 24 25 26 26 25 26 27 27 27 27 27 27 28 28 28 28 27 27 27 27 27 27
27 26 26 26 26 26 26 25 26 25 25 25 26 24 23 24 24 24 24 25 25 25 26 26 27 26 26 27 27 27 28 27 27 28 28 27 28 28 28 28 28 28 28
25 25 25 25 26 26 26 25 24 25 25 26 24 24 25 26 25 25 25 25 26 26 26 27 27 27 27 26 27 28 28 27 27 27 27 28 27 28 28 27 28 28 28
24 24 25 26 26 26 26 26 25 25 25 25 25 25 26 26 26 26 26 26 27 27 27 28 27 27 27 27 28 28 27 26 26 27 27 28 28 27 28 28 28 28 28
24 25 25 26 26 27 26 25 25 25 25 25 27 27 27 27 27 27 27 28 28 28 28 28 27 28 28 28 27 27 27 27 27 27 27 27 27 28 28 28 27 27 27
25 24 25 26 26 27 26 26 26 26 26 26 26 27 28 28 28 27 27 28 29 29 28 28 28 27 27 26 27 26 26 27 27 27 28 28 28 27 28 28 28 28 28
23 23 24 25 24 25 25 25 26 27 26 26 26 27 28 28 27 28 28 29 28 28 28 28 28 28 28 27 26 26 26 26 27 27 27 28 27 27 27 28 28 28 28
21 22 22 23 23 24 25 25 26 27 27 27 27 28 28 27 27 28 28 28 28 28 29 29 29 28 28 27 27 26 26 26 26 26 26 27 27 26 26 26 27 27 26
21 21 22 23 24 25 26 27 26 27 27 27 27 27 27 27 26 26 27 28 28 28 29 28 28 27 27 26 26 26 26 26 26 25 25 26 26 25 24 25 26 26 26
21 21 22 23 24 25 26 26 26 27 27 27 27 27 26 27 27 27 27 27 27 27 27 27 27 27 26 26 25 25 25 25 25 25 25 25 25 25 25 25 25 26 26
19 20 21 22 23 24 25 26 27 27 28 28 28 28 27 27 26 26 26 26 26 26 26 26 26 25 25 25 24 24 24 24 23 24 24 23 23 23 23 23 23 24 24
18 19 19 20 21 23 24 25 26 27 27 27 26 25 25 25 24 24 25 25 25 25 24 24 24 24 24 23 23 23 23 23 23 23 23 22 22 21 21 22 22 22 22
17 18 18 19 20 21 22 23 24 23 24 23 23 24 24 24 24 24 24 24 24 23 23 23 23 23 23 22 22 22 22 22 22 21 21 21 21 21 21 21 21 21 22
17 17 18 19 19 19 20 21 20 21 20 21 21 22 22 23 24 24 24 24 23 23 23 23 22 22 22 22 22 21 21 21 20 20 20 20 20 20 21 21 21 21 21
17 17 18 18 18 18 18 18 19 18 18 19 19 20 20 21 22 22 22 22 22 22 22 22 22 21 21 21 21 20 20 19 19 19 19 19 19 20 20 21 21 20 20
17 17 18 17 17 17 17 16 16 17 17 17 18 18 18 19 19 20 20 20 21 21 21 22 21 21 21 20 20 19 19 18 17 18 18 19 19 19 19 20 20 20 20
17 17 16 15 15 15 15 15 15 15 15 16 17 17 17 17 17 18 18 19 19 20 19 19 20 20 20 19 17 17 17 17 17 17 17 17 17 17 17 18 18 18 18
16 15 14 14 14 14 14 14 14 14 15 16 16 16 16 16 16 17 16 17 17 17 17 17 17 17 17 17 16 16 16 16 15 15 15 14 14 15 15 16 16 15 16
14 14 14 13 13 13 13 13 13 13 13 14 14 14 13 14 14 15 15 14 14 14 14 14 14 15 15 15 15 15 15 14 14 14 13 13 14 14 14 13 13 14 14
12 12 12 12 12 12 12 12 12 12 12 12 12 12 12 12 12 13 13 12 12 12 13 12 12 13 13 13 13 13 13 12 12 12 12 11 12 12 11 11 12 12 12
11 11 11 11 11 11 10 10 9 9 9 9 10 10 10 11 11 11 11 11 10 10 10 10 11 11 11 10 11 11 11 11 10 10 10 9 9 9 9 9 10 10 10
10 10 10 9 9 9 9 8 7 7 8 8 8 9 9 10 10 10 10 10 9 9 9 9 9 9 9 9 8 9 9 9 9 9 9 8 8 8 8 8 8 8 8
9 9 8 8 8 8 9 7 7 7 7 7 7 7 7 8 8 8 8 8 8 8 7 7 7 7 7 7 7 7 7 8 7 7 7 7 6 6 6 6 6 6 7
8 8 7 7 7 8 7 6 6 6 6 6 7 7 7 8 8 8 8 7 7 7 7 6 6 5 5 5 5 4 4 5 6 6 6 6 5 5 5 5 5 6 6
6 5 5 6 6 5 5 5 6 6 6 6 6 6 7 7 7 7 7 7 7 6 6 5 4 4 5 4 4 3 2 2 3 4 4 5 5 5 5 5 5 5 5

GEFSMW_500_meanwind_156.txt.gz
Wind_Speed
28 28 27 27 27 27 28 28 28 28 29 30 30 30 29 30 30 29 28 28 28 28 27 27 26 26 27 27 27 27 27 27 28 27 27 26 26 26 26 25 25 25 25
27 28 28 27 27 26 28 29 29 30 31 31 31 30 30 29 29 29 28 28 28 29 28 27 26 27 27 27 26 27 27 27 27 27 27 27 27 26 26 26 26 26 26
29 29 29 29 28 28 29 29 30 30 30 31 30 30 30 29 29 29 28 28 28 28 29 28 27 27 28 27 27 27 27 27 27 27 26 26 26 26 26 26 26 26 26
29 30 30 30 29 27 28 29 30 30 30 30 30 30 29 29 29 30 29 29 28 28 28 28 28 27 27 27 28 28 28 28 28 28 27 27 26 26 26 26 25 25 26
29 31 30 29 29 29 28 29 29 30 30 30 30 30 30 30 30 29 29 28 28 27 28 28 28 28 27 27 27 28 28 29 29 28 28 27 26 26 26 26 26 25 25
29 30 30 29 28 28 27 27 28 29 29 30 31 31 31 30 29 29 28 27 27 27 28 28 28 28 28 27 27 28 28 28 28 28 27 27 26 26 27 26 25 25 25
29 29 29 29 28 28 28 27 27 28 28 29 30 31 30 30 28 28 28 27 27 27 27 27 28 28 28 28 27 27 27 27 27 27 27 27 27 27 27 27 26 26 26
28 28 28 28 27 26 26 26 26 27 27 28 28 29 29 30 29 28 28 27 27 27 27 27 27 27 27 27 27 26 26 26 26 26 26 26 26 26 26 26 26 25 26
27 27 26 27 27 26 26 26 26 27 27 27 28 28 29 28 28 27 27 26 26 26 26 26 26 26 27 27 26 26 26 26 26 25 25 25 25 25 26 26 26 25 25
26 26 25 25 25 25 26 26 27 27 27 27 27 28 28 27 26 25 25 24 25 25 25 26 25 26 26 26 25 25 25 25 25 24 24 23 23 23 24 24 24 25 24
25 25 24 24 25 25 25 25 27 28 28 27 27 27 27 27 25 24 24 24 25 25 25 25 25 25 25 24 24 25 25 24 24 24 23 23 22 23 23 24 24 24 24
24 23 22 23 24 24 24 25 26 26 26 26 27 28 28 27 26 25 25 25 25 25 25 25 24 24 23 23 22 23 24 24 24 24 23 22 22 23 22 23 23 23 24
25 23 23 23 24 23 23 23 24 25 25 25 26 26 26 26 26 25 24 24 24 24 24 24 24 23 23 22 22 23 23 24 24 23 23 22 22 22 22 22 22 22 23
23 23 23 23 22 22 21 21 22 23 23 23 24 24 24 24 24 23 22 23 22 23 23 23 23 23 22 22 22 22 23 23 23 22 22 21 21 21 21 21 21 21 21
23 22 22 21 20 19 20 20 20 21 21 22 22 22 22 21 21 21 21 21 21 22 22 22 22 23 23 22 22 22 22 22 21 21 21 21 21 22 22 21 21 20 20
21 20 20 20 19 19 20 20 20 20 20 21 20 20 20 19 19 19 20 20 21 21 21 22 22 22 22 22 21 21 21 21 20 20 21 21 21 21 21 21 21 21 20
19 19 19 19 18 18 19 20 20 20 19 18 18 17 17 18 18 18 19 19 19 19 20 20 21 21 21 21 20 21 20 20 20 20 20 20 20 20 20 20 19 19 19
19 19 19 18 18 18 18 18 18 18 17 17 16 15 16 16 17 17 17 17 17 18 18 19 18 18 18 19 19 19 19 19 19 20 19 19 19 19 19 19 18 18 19
18 18 18 17 17 17 17 17 17 16 16 16 15 14 14 14 14 14 14 15 15 15 16 16 16 16 17 18 18 17 17 18 18 18 18 17 17 17 17 17 18 18 18
17 17 16 16 16 16 15 15 15 14 14 14 13 12 12 12 12 13 13 13 13 14 14 14 14 14 15 16 16 16 16 16 16 16 16 16 15 15 14 14 15 16 17
15 15 15 15 14 14 14 14 14 13 13 13 12 12 12 11 12 12 12 12 12 12 13 13 12 12 13 13 14 14 14 14 14 14 14 14 13 12 13 13 13 13 14
14 13 13 13 13 12 12 12 12 12 12 12 11 11 11 10 11 11 11 11 11 12 12 11 11 11 11 11 12 12 12 12 12 12 11 11 11 11 11 11 11 11 11
12 12 12 12 11 11 11 11 11 10 10 11 10 9 9 9 9 10 10 10 11 11 11 11 11 11 11 11 11 11 11 10 10 10 10 9 9 9 10 9 9 10 10
11 11 11 11 11 11 10 10 10 10 10 10 8 8 8 8 9 9 10 10 10 11 11 11 11 11 11 11 11 10 10 9 9 9 8 8 7 8 8 8 8 8 9
10 10 10 10 10 10 9 8 8 8 8 8 7 8 8 8 9 10 11 11 11 12 11 12 12 11 11 11 11 10 9 9 7 6 7 7 7 7 6 7 7 7 7
8 8 9 9 9 8 7 7 7 8 8 8 7 8 9 9 10 10 11 12 12 12 12 12 12 12 12 11 11 10 9 8 7 7 6 7 6 6 6 6 7 7 7

GEFSMW_500_meanwind_162.txt.gz
Wind_Speed
26 26 27 27 27 27 28 29 30 29 29 30 29 29 29 28 27 26 26 26 25 25 25 25 25 26 26 26 25 25 25 25 26 26 26 26 26 25 25 25 25 25 25
26 26 26 26 27 28 29 29 30 30 30 30 30 29 29 28 27 27 27 27 26 26 25 24 25 25 25 25 26 26 26 26 26 26 26 26 26 26 25 26 26 26 25
26 26 25 26 26 27 28 29 29 30 30 30 28 28 28 28 28 28 28 28 27 27 26 26 26 26 25 26 26 26 26 26 26 26 26 26 26 27 27 27 27 26 25
26 25 25 26 27 27 28 28 28 28 29 29 29 28 28 28 27 28 27 27 27 26 26 25 25 26 26 25 25 26 26 26 26 26 27 26 26 26 26 27 27 26 25
24 23 25 27 28 28 28 28 27 26 26 27 27 28 28 28 27 27 26 27 26 25 25 24 24 24 24 24 25 25 25 25 26 26 26 26 26 27 26 26 27 26 26
23 25 26 27 28 29 29 28 27 26 26 26 26 27 27 27 27 26 26 27 25 24 22 22 22 23 23 24 24 25 24 24 25 26 26 27 27 27 26 25 26 27 27
25 26 27 27 27 28 29 28 28 27 26 27 26 26 26 27 26 26 25 25 24 23 22 22 23 24 24 24 24 25 25 26 26 26 27 27 27 28 27 26 26 26 26
25 25 26 27 27 28 29 29 27 27 26 26 26 26 27 26 26 25 25 24 24 24 23 23 23 23 23 23 24 24 25 25 26 26 26 26 27 27 26 26 26 26 26
25 24 24 25 26 27 28 27 26 26 25 24 24 25 25 25 24 23 24 24 24 23 23 23 23 23 23 23 23 23 23 24 24 24 25 24 25 25 26 26 25 25 25
24 25 24 24 26 27 26 26 26 24 23 22 22 23 23 23 22 21 21 21 21 21 21 22 22 22 22 22 22 21 21 21 22 22 23 23 23 24 24 24 24 24 24
24 23 24 24 25 25 25 25 24 23 21 21 21 21 21 21 21 21 21 21 21 21 21 21 22 22 21 21 21 21 21 21 22 22 22 23 23 22 23 23 23 23 24
23 23 24 23 24 24 23 23 22 21 21 20 20 20 21 20 20 20 19 19 20 20 20 20 21 21 21 21 21 20 21 22 21 22 22 22 22 22 22 22 22 23 23
24 24 23 23 23 23 22 21 21 19 19 19 19 20 20 20 19 19 19 20 19 19 19 20 20 20 20 20 20 20 21 21 21 22 22 22 21 21 21 22 22 23 23
24 24 23 23 23 22 21 21 20 18 17 17 18 19 19 18 18 18 18 19 19 19 19 19 19 19 19 20 20 21 21 21 21 21 22 22 21 21 21 22 22 22 23
23 22 21 20 20 20 19 20 19 18 18 18 19 20 18 17 17 18 18 18 18 18 18 18 18 18 18 19 19 20 19 20 20 20 20 21 21 22 22 22 22 22 22
22 20 19 18 18 17 17 18 18 17 18 18 19 19 18 17 17 17 17 17 16 16 16 17 17 17 17 17 17 18 19 19 19 19 20 20 21 22 22 22 22 22 23
21 19 17 16 16 16 16 17 17 17 17 18 18 18 17 16 15 15 15 14 13 14 14 14 14 15 16 17 17 18 17 17 17 18 19 19 19 20 20 20 21 21 22
19 17 16 16 16 15 16 16 17 16 16 17 17 16 15 13 13 13 13 12 12 13 12 13 14 15 16 17 17 16 16 15 15 16 16 16 16 16 17 18 19 20 20
17 16 15 15 15 15 15 16 16 15 15 15 15 14 13 12 12 12 11 10 10 11 11 12 13 14 15 15 15 15 15 14 15 15 15 15 15 15 16 17 18 18 19
15 15 14 14 14 13 13 14 14 13 13 13 13 13 12 11 11 10 9 9 9 10 11 12 13 13 13 13 13 13 14 14 14 15 15 14 14 15 15 16 16 17 17
14 14 13 13 12 12 13 12 12 12 12 11 12 11 11 11 10 10 9 9 9 10 11 12 12 12 12 12 12 12 13 13 13 13 13 13 13 14 14 14 14 15 15
13 13 12 12 11 11 11 11 11 12 12 11 11 10 9 10 10 10 10 10 10 10 10 10 11 11 11 12 12 12 12 12 12 11 12 12 12 12 12 12 12 12 13
12 12 12 11 10 10 10 10 10 11 10 9 9 9 9 9 9 9 9 9 9 9 10 10 11 11 12 12 12 11 12 12 12 11 10 11 10 10 10 10 10 11 12
10 10 10 9 9 9 9 8 9 9 8 8 8 9 9 8 9 9 9 9 9 10 10 11 12 12 13 13 12 12 12 12 11 11 11 10 10 10 10 10 10 10 11
8 8 8 8 8 7 7 6 7 7 8 7 7 8 9 9 9 9 9 9 10 10 10 11 12 12 13 13 13 13 13 12 11 11 11 11 10 10 10 10 10 9 9
5 6 7 7 6 5 5 5 6 6 7 7 8 8 8 8 8 8 9 9 10 10 11 12 12 13 13 13 13 13 13 12 11 11 11 11 10 9 9 9 9 9 9

GEFSMW_500_meanwind_168.txt.gz
Wind_Speed
24 23 24 24 24 25 25 25 25 26 26 27 28 28 28 27 28 29 29 28 28 28 28 28 28 28 28 28 28 28 29 30 31 30 30 29 28 27 27 27 28 28 28
24 24 24 24 25 25 25 25 26 26 27 27 28 28 28 27 28 28 27 27 27 28 29 29 29 28 29 28 29 29 30 31 31 30 30 29 28 28 28 27 28 27 28
23 24 24 25 24 24 25 26 27 27 27 28 28 28 27 27 27 27 27 27 28 28 29 30 30 30 29 28 28 29 28 28 28 29 29 29 28 28 28 28 28 28 28
24 25 25 25 25 26 26 27 27 27 27 29 28 28 28 28 27 27 26 27 28 28 27 27 28 28 28 28 28 27 27 28 27 28 29 29 28 28 29 30 29 29 29
24 24 25 26 26 27 27 27 27 27 28 28 28 28 28 28 27 26 27 27 27 27 26 27 27 27 27 28 27 26 27 27 27 27 28 28 28 28 29 28 29 29 30
24 25 25 26 27 27 27 28 28 28 28 28 29 28 28 28 27 26 27 26 26 26 26 27 27 27 26 26 25 25 26 26 27 27 27 27 27 28 29 29 29 31 31
25 26 26 27 28 28 28 29 29 28 28 28 29 28 28 27 26 26 27 26 25 25 26 28 27 27 26 25 24 24 25 26 26 26 26 27 27 28 29 29 29 30 31
26 26 27 27 27 28 27 28 28 28 27 27 27 26 26 26 26 25 25 25 24 24 25 26 25 25 25 25 25 25 25 25 25 26 26 27 27 28 28 28 29 29 29
26 26 26 27 27 27 26 26 26 26 26 25 25 25 25 25 24 24 24 24 23 23 23 23 23 23 24 24 25 25 25 25 25 25 25 26 26 26 27 27 27 28 28
24 24 25 26 26 25 25 24 24 23 24 24 24 24 24 24 23 23 23 23 21 21 21 20 21 22 23 24 24 25 25 24 24 24 24 24 25 25 26 26 26 26 26
24 24 24 24 24 25 24 23 22 21 22 22 23 24 24 24 23 22 21 22 21 20 19 20 20 20 21 22 22 23 23 23 23 23 24 24 24 25 25 25 25 25 25
25 24 24 23 24 24 24 23 22 22 22 22 21 21 22 21 20 20 20 20 19 18 19 19 19 19 20 21 21 21 21 22 22 22 21 22 23 24 24 25 25 25 25
25 25 24 23 23 23 23 23 22 21 21 20 19 19 18 18 17 18 18 18 17 17 18 18 18 19 20 20 20 19 20 20 20 20 20 20 21 22 22 23 24 24 25
25 24 24 23 23 23 23 23 22 21 20 18 18 17 17 17 17 18 17 16 16 16 17 17 18 18 19 19 19 19 19 18 19 19 19 20 21 21 21 22 23 23 23
24 23 23 22 21 21 22 23 21 20 18 18 17 16 16 16 17 17 16 16 15 15 15 16 16 16 16 17 17 17 17 17 18 19 19 20 20 20 20 21 22 22 23
22 22 22 21 20 20 20 21 21 19 18 18 17 16 16 16 15 15 15 15 14 14 14 15 15 15 15 16 16 16 17 18 18 18 19 19 20 20 21 21 22 23 24
21 21 21 20 19 19 19 20 19 18 18 18 17 16 16 15 14 14 14 14 13 14 14 14 14 14 15 15 16 16 17 18 18 18 19 19 20 20 20 21 22 23 23
20 20 19 19 18 18 18 17 17 17 17 16 16 15 14 14 14 14 13 14 14 14 14 14 13 13 13 14 15 16 16 17 18 18 18 19 19 20 20 20 20 21 21
18 19 18 18 18 17 17 16 16 16 15 15 14 14 13 12 12 12 12 12 12 12 12 12 12 12 12 13 14 15 15 16 16 17 17 18 18 19 19 19 20 20 20
17 17 17 17 16 16 16 16 15 15 14 14 13 13 12 12 12 11 11 12 11 11 12 12 11 12 12 13 13 13 14 14 15 15 15 16 16 16 17 18 18 18 18
16 17 17 16 15 15 15 15 14 13 13 13 12 12 11 11 11 11 11 11 11 11 11 11 12 12 12 13 13 14 13 14 14 14 15 15 15 15 15 15 15 15 16
15 15 15 14 14 13 13 13 12 12 11 11 10 10 10 10 10 11 11 10 11 11 11 11 12 13 13 14 13 14 14 14 13 14 14 14 14 14 14 14 14 15 15
13 13 13 13 12 12 11 11 10 10 10 9 9 9 9 10 10 10 11 11 11 11 12 13 13 13 14 14 13 14 14 14 14 13 13 13 14 14 14 14 14 14 14
12 12 11 11 10 10 10 9 8 8 9 9 9 9 10 10 9 10 10 11 10 11 12 13 13 13 14 14 14 15 15 15 14 13 13 13 13 14 14 14 15 15 14
10 10 9 8 8 8 9 8 8 8 9 8 8 8 9 9 9 9 10 10 11 12 12 13 13 13 14 14 14 14 15 14 14 14 14 13 13 13 14 14 14 14 14
9 8 8 7 7 7 7 7 7 7 7 7 7 8 9 9 9 10 10 10 12 12 12 13 13 13 13 14 14 14 15 15 15 14 14 13 13 14 15 14 14 14 14

GEFSMW_500_meanwind_174.txt.gz
Wind_Speed
25 26 26 25 25 26 26 27 27 27 27 27 28 28 29 28 29 30 29 29 29 30 29 30 30 30 30 31 32 32 31 30 30 30 30 29 29 29 29 28 29 29 29
25 26 25 25 25 26 26 26 27 27 28 28 29 29 29 29 30 30 29 30 29 28 29 29 30 31 30 31 31 31 31 31 31 31 31 31 29 28 29 29 29 29 29
24 25 25 25 25 26 26 26 27 27 28 29 29 30 29 30 29 30 31 29 29 28 29 29 30 30 30 30 30 30 31 30 31 31 31 30 29 29 29 30 30 30 30
25 25 25 25 25 26 27 27 27 27 28 29 30 31 30 29 29 30 30 29 28 28 28 28 29 29 30 30 30 30 30 30 30 30 30 30 30 29 29 29 30 30 30
25 25 26 25 25 25 26 26 27 28 29 29 29 30 29 29 28 29 28 28 27 27 27 27 28 28 29 29 29 29 29 30 30 30 30 30 30 29 29 29 30 30 30
25 25 26 26 26 26 27 27 28 28 29 29 29 29 28 28 27 27 26 26 26 26 26 26 27 27 28 28 28 29 29 30 30 29 29 29 29 29 29 28 29 29 29
25 26 26 27 27 27 28 28 28 29 29 28 28 27 27 26 26 26 25 25 25 26 25 25 26 26 25 25 26 26 27 28 28 28 27 27 27 27 27 27 27 27 27
26 26 26 26 27 27 27 27 28 27 27 27 27 27 26 25 25 25 24 24 24 24 23 24 23 24 24 24 25 26 26 26 27 27 27 26 26 26 26 26 26 26 27
26 25 25 25 26 26 26 26 26 26 27 26 26 25 23 23 23 23 23 23 23 22 22 23 22 22 22 22 22 23 24 24 25 25 25 24 24 24 24 25 25 25 26
26 25 25 25 25 24 24 25 25 25 25 24 24 23 22 21 22 22 21 21 21 21 21 21 22 22 21 21 22 23 23 23 23 23 23 23 22 21 22 23 23 24 24
27 26 25 26 25 24 24 24 24 25 24 24 24 22 21 21 20 20 19 19 20 20 20 20 20 20 19 19 20 20 20 20 21 21 22 22 23 22 22 23 23 24 25
26 26 26 26 25 24 23 23 23 23 23 23 22 21 20 20 19 18 17 17 17 18 18 18 18 18 17 17 16 17 18 19 19 19 20 20 22 22 22 23 23 24 25
25 25 24 25 24 23 22 22 23 23 22 22 22 21 19 18 18 18 17 17 17 17 17 17 17 16 16 16 16 16 16 17 18 18 18 19 20 20 20 21 22 23 24
24 24 22 22 22 21 21 21 21 21 21 21 22 21 19 18 18 17 16 16 16 15 15 14 14 14 15 15 14 14 15 15 16 17 18 18 18 19 19 19 20 21 22
23 22 21 21 20 19 19 19 19 20 20 20 20 20 18 17 17 16 15 15 14 14 13 13 13 13 15 15 13 14 15 16 16 17 18 18 18 18 19 20 20 22 23
22 21 20 19 19 18 18 18 18 18 18 18 17 16 16 16 16 16 16 15 14 12 12 12 12 13 14 14 13 14 15 16 16 17 18 18 19 19 19 20 21 22 22
21 20 18 18 18 17 17 16 16 16 16 16 16 16 16 15 15 15 15 13 12 12 12 11 11 12 12 13 14 14 15 15 16 17 17 18 18 18 18 18 19 20 20
20 19 18 17 17 16 16 16 16 16 16 15 15 15 14 14 13 14 13 12 11 12 11 11 11 11 12 13 13 14 15 15 16 16 17 17 17 16 17 18 18 19 18
20 19 18 17 17 16 16 16 17 17 15 14 13 13 13 12 13 12 11 11 11 11 11 11 12 12 12 13 13 14 14 14 15 15 15 15 15 15 15 16 16 16 17
19 19 17 17 16 16 16 16 15 15 14 13 12 12 12 12 11 10 10 10 10 11 11 11 12 12 13 13 13 13 14 14 14 15 15 15 15 14 14 14 15 15 16
18 17 17 16 15 15 15 14 14 13 13 12 11 11 11 11 10 10 10 10 10 11 11 11 12 11 12 12 12 13 14 14 14 14 15 14 14 13 13 13 14 14 15
15 15 14 13 13 13 13 13 12 12 12 11 11 10 10 9 9 9 9 9 10 11 11 12 12 12 12 12 12 12 13 13 14 14 14 14 14 13 14 14 14 14 14
13 13 13 12 11 11 11 11 11 11 11 10 10 9 8 8 8 8 8 8 10 10 10 11 11 11 11 11 12 12 13 14 14 14 14 14 13 13 13 14 14 14 15
12 11 11 11 10 9 10 9 9 9 9 9 8 8 7 7 8 8 8 9 9 9 10 10 11 11 12 12 12 13 13 14 15 15 14 14 13 13 14 14 14 15 15
10 9 9 9 9 8 8 8 8 7 7 7 7 7 6 6 7 8 8 9 9 10 10 11 11 12 12 12 13 13 14 14 15 15 14 13 13 14 14 14 15 15 16
8 8 8 8 7 7 7 7 7 6 6 6 6 6 6 6 7 7 8 8 9 9 10 11 11 12 12 13 14 14 15 15 15 15 15 15 15 15 15 15 15 15 16

GEFSMW_500_meanwind_180.txt.gz
Wind_Speed
27 26 28 29 29 28 29 28 29 29 29 29 29 28 28 30 30 31 30 31 32 31 30 30 30 29 29 29 29 29 29 28 28 29 29 29 28 28 28 28 27 27 27
28 27 28 29 29 29 29 29 29 30 30 30 29 28 29 30 31 31 31 31 31 31 31 31 30 29 29 28 29 29 29 29 29 30 30 29 28 28 29 29 29 29 28
29 30 30 30 30 29 29 29 29 30 30 30 30 30 30 31 31 30 30 30 31 31 30 30 29 28 28 28 29 29 29 29 29 30 30 30 29 29 29 30 30 29 28
31 31 31 31 30 30 30 29 30 30 30 30 30 30 30 30 30 30 30 30 30 30 29 29 28 28 28 28 28 29 29 29 28 29 29 29 29 29 29 29 29 29 29
30 30 30 31 31 30 30 30 29 29 29 30 30 29 29 29 30 29 29 28 28 27 27 26 27 27 26 27 27 28 28 27 27 27 28 28 28 28 28 27 28 28 28
31 30 31 31 32 31 30 30 29 29 29 29 29 28 28 29 28 28 27 26 26 26 25 25 25 25 25 25 26 27 26 26 26 26 27 27 27 27 26 26 26 27 26
33 32 31 31 32 30 29 29 29 29 28 28 28 28 28 28 28 27 25 25 25 25 25 24 24 24 24 25 26 26 25 24 24 25 26 26 26 26 26 26 25 25 25
33 33 31 31 31 29 28 29 28 28 27 27 28 28 27 27 25 24 24 24 25 24 24 23 23 23 23 24 24 24 23 23 24 25 26 27 26 26 26 25 25 25 24
30 31 31 31 31 30 30 29 28 26 26 27 27 26 26 25 24 23 23 23 24 24 23 23 23 23 22 23 23 23 22 22 22 23 24 24 25 25 25 25 26 26 25
30 30 30 31 30 29 29 28 27 26 25 26 25 24 23 23 23 22 22 22 23 22 22 21 21 21 21 22 22 22 22 22 22 22 22 23 23 23 24 24 25 26 25
31 30 30 30 29 28 27 27 26 26 26 25 24 23 22 21 22 21 22 22 21 21 21 19 19 19 20 20 21 21 21 20 20 20 21 21 22 22 23 24 24 25 25
30 30 29 28 27 27 26 25 25 25 25 24 23 23 22 21 21 21 21 21 21 20 19 18 18 18 19 19 19 19 19 19 19 19 20 20 21 21 22 22 24 25 24
30 29 28 27 26 25 24 24 23 23 23 23 22 22 21 22 21 20 19 19 19 18 18 18 18 18 19 19 18 18 18 18 18 18 18 19 20 22 22 22 23 23 23
29 29 29 27 26 25 23 22 21 22 22 21 20 20 20 20 19 19 19 18 17 17 18 18 18 18 18 18 17 17 17 17 16 16 17 19 20 21 21 22 22 23 23
29 28 28 28 26 25 23 22 21 21 20 19 19 20 19 18 17 17 18 17 17 17 18 17 17 17 17 18 17 16 16 16 16 16 17 18 19 20 20 21 22 23 23
28 28 27 27 26 25 23 22 20 20 20 20 19 19 18 18 17 16 16 16 16 17 17 17 17 16 17 17 17 16 16 17 18 18 18 19 19 19 20 20 21 21 22
28 27 26 26 25 23 23 21 20 20 19 19 19 18 18 18 17 16 16 17 17 16 16 16 15 15 16 16 16 16 16 17 18 19 20 20 19 19 20 21 21 21 21
27 26 25 24 24 22 21 20 20 19 19 18 18 18 18 17 16 16 16 16 15 14 14 15 15 14 14 15 15 16 16 17 18 19 19 20 20 21 21 21 21 20 20
26 24 23 22 22 21 19 19 19 19 19 18 17 18 17 16 15 15 15 15 14 14 14 14 15 14 14 15 16 16 16 17 18 19 19 19 20 19 19 19 18 18 18
24 23 21 21 20 20 19 19 18 18 18 17 17 17 16 15 14 14 13 13 13 13 13 14 15 15 15 15 16 17 17 18 18 19 19 19 19 18 18 17 17 16 16
23 21 20 19 19 18 17 17 17 16 16 16 16 15 14 13 13 12 11 12 13 13 14 15 15 15 16 17 17 17 18 18 17 18 18 18 18 18 17 17 16 16 16
21 20 18 18 16 16 16 16 15 14 14 15 14 13 12 12 11 11 11 11 12 12 13 14 15 15 15 16 16 17 17 17 17 17 18 18 18 18 17 17 16 15 15
19 17 17 15 14 14 14 14 14 13 13 13 12 11 11 11 11 10 10 10 11 12 14 14 14 14 15 15 15 16 16 17 17 17 17 17 18 17 17 16 16 16 16
17 15 14 12 12 13 12 12 13 13 12 12 11 10 10 10 10 10 9 10 11 12 13 14 13 14 14 16 16 16 16 17 17 17 18 18 18 18 17 17 17 17 18
14 13 13 12 12 12 11 11 11 12 12 11 10 9 9 9 9 9 9 9 11 12 13 13 13 15 16 17 17 17 17 17 17 18 18 18 18 18 18 18 18 18 18
13 12 12 11 11 11 10 10 11 11 11 11 10 9 9 9 9 9 9 9 10 12 13 13 14 15 16 17 16 16 17 17 17 18 19 18 18 18 18 18 18 18 19

GEFSMW_500_meanwind_186.txt.gz
Wind_Speed
29 28 28 28 28 29 30 31 31 30 29 29 28 28 27 26 26 26 27 26 26 25 25 25 25 25 25 25 25 25 24 24 25 25 25 25 25 26 26 26 26 26 27
29 30 29 29 29 30 31 31 31 30 29 29 29 28 27 27 27 27 26 26 25 25 26 25 25 26 25 25 25 25 25 25 24 24 25 25 26 26 26 26 26 27 28
30 30 30 30 30 30 30 31 31 30 30 29 29 29 28 28 27 26 26 26 26 25 25 25 25 25 25 24 25 25 25 25 24 24 25 25 25 25 25 25 26 27 28
30 30 30 29 29 30 30 30 30 30 30 29 28 28 28 27 27 26 25 25 24 25 25 25 24 25 25 25 25 25 24 24 23 24 25 25 24 25 25 25 26 26 27
29 29 30 29 29 30 31 31 30 29 29 29 28 27 26 26 26 25 25 24 24 23 24 24 23 24 24 24 24 24 23 23 23 23 24 24 24 24 25 25 25 25 26
28 29 30 30 30 30 31 31 31 31 30 29 27 26 26 25 25 24 23 23 23 23 23 23 23 22 22 23 23 23 22 23 23 23 23 24 24 23 23 24 24 25 25
29 30 31 30 30 30 30 31 30 30 28 27 26 25 25 25 24 23 22 22 23 23 23 22 22 22 22 22 22 22 22 22 22 23 23 23 22 22 23 23 23 23 24
29 29 30 30 29 29 29 29 29 28 27 25 25 24 25 24 23 23 22 23 23 23 21 21 22 22 21 21 21 21 21 21 21 21 22 22 22 23 23 23 23 23 24
29 29 30 30 30 29 29 28 28 28 26 24 24 23 22 22 22 22 22 22 22 21 20 20 20 20 20 20 19 19 19 20 20 20 20 21 21 21 22 23 23 24 24
29 29 29 29 29 29 29 28 27 25 26 25 24 22 22 22 22 21 20 20 20 20 20 20 19 18 19 19 19 19 20 20 20 20 20 21 21 21 22 23 23 23 24
28 28 29 29 28 28 28 27 26 25 25 24 23 21 20 20 19 20 19 19 19 19 19 19 18 18 18 19 19 19 20 20 20 20 21 21 21 22 22 23 23 24 25
29 29 29 29 28 27 27 26 25 24 24 23 23 21 20 19 19 19 19 19 18 18 18 18 18 17 17 18 18 18 18 19 19 20 20 21 21 22 22 22 22 23 24
28 28 29 29 27 26 26 25 24 23 23 23 22 20 19 19 19 18 18 18 18 18 17 17 17 17 18 18 17 17 17 18 18 19 19 20 19 20 21 21 22 23 24
29 29 29 28 28 26 26 25 23 22 22 21 20 20 19 18 17 17 17 17 17 17 17 17 17 17 17 17 16 16 17 17 18 18 19 19 18 19 20 21 21 22 23
30 29 29 28 25 24 24 23 22 21 21 20 19 20 19 18 18 18 17 17 17 17 16 16 16 16 16 15 15 16 16 17 17 17 18 19 18 18 18 19 20 21 22
29 28 28 27 25 23 22 22 22 21 20 19 19 19 18 18 17 17 17 16 17 16 16 15 15 15 15 14 15 15 16 16 16 16 17 17 17 18 18 18 19 19 21
27 27 27 26 24 23 23 22 21 21 20 19 17 17 17 17 17 16 16 16 16 15 14 14 14 15 14 14 14 15 16 16 16 17 17 17 17 17 17 18 19 20 20
26 26 25 24 24 23 23 21 20 19 19 16 15 15 16 16 16 15 16 16 15 13 12 12 14 14 13 13 14 15 16 17 17 18 18 18 18 18 18 19 19 19 19
25 26 25 24 23 22 22 20 19 18 17 15 14 14 15 15 15 15 15 14 13 12 12 13 13 13 12 13 14 16 16 16 17 18 18 18 18 18 18 18 19 18 18
26 25 24 23 22 21 21 20 18 17 16 15 12 12 13 13 14 14 13 12 11 11 11 11 11 12 13 14 15 15 15 16 16 17 17 17 17 18 18 18 17 17 17
25 25 23 22 21 20 20 18 17 16 15 13 11 11 12 13 12 12 12 10 10 11 11 11 11 12 13 14 15 15 16 16 16 16 16 17 17 18 18 17 16 16 16
24 24 23 21 20 19 18 16 16 15 14 12 10 10 11 11 11 11 11 10 10 10 11 11 12 13 14 14 14 15 16 16 17 17 17 17 17 17 17 16 16 15 15
24 23 21 19 18 17 16 15 14 14 13 10 9 10 10 10 11 12 11 10 9 10 11 11 12 13 14 14 14 16 17 17 17 17 17 18 17 17 17 17 16 16 16
22 20 19 17 16 15 14 13 13 11 10 8 9 9 9 10 11 11 10 10 9 10 11 12 12 13 13 14 15 16 17 17 17 17 17 18 17 18 17 17 16 16 17
20 18 16 16 14 13 12 12 10 9 8 7 8 8 8 8 9 9 9 9 10 11 11 11 12 13 14 14 15 16 16 17 17 18 17 18 18 18 17 17 17 17 17
17 16 15 13 12 11 10 10 8 8 7 6 6 6 6 7 8 8 9 9 10 11 12 12 13 13 14 14 15 16 17 18 18 18 18 18 18 18 18 17 17 17 18

GEFSMW_500_meanwind_192.txt.gz
Wind_Speed
27 27 28 28 28 27 28 28 28 29 30 29 28 28 29 28 28 28 28 28 27 27 26 25 26 25 25 24 25 24 25 25 25 26 26 25 25 25 25 26 27 28 28
27 28 29 29 29 29 29 29 29 30 29 28 28 28 29 29 28 28 28 28 27 27 26 26 26 25 24 24 25 25 25 25 25 26 26 25 26 26 26 27 27 28 29
27 28 28 28 29 29 29 29 29 29 29 28 28 28 30 30 30 30 29 27 27 26 26 26 25 24 24 24 25 25 26 26 26 26 26 25 25 26 26 27 27 28 29
27 27 28 28 29 29 29 29 29 29 29 29 30 29 29 29 29 28 27 27 27 26 24 24 24 24 24 24 24 24 25 26 25 26 26 26 26 27 26 27 27 28 28
28 28 29 29 29 29 29 29 29 28 29 29 29 29 29 28 27 27 27 27 26 25 24 23 23 24 24 24 24 24 25 24 24 24 25 26 27 27 26 26 27 27 28
28 28 29 29 29 29 29 29 29 29 29 29 28 28 28 27 26 26 26 25 24 24 23 23 23 23 23 23 23 24 24 24 24 24 25 26 26 26 27 27 27 27 28
27 28 29 29 29 28 29 29 29 28 28 28 28 27 27 25 24 24 24 22 23 23 22 22 23 23 23 23 24 24 24 24 24 24 25 25 25 26 27 27 28 28 28
27 28 28 29 29 29 29 30 29 29 28 28 27 26 25 24 24 22 22 21 21 21 22 22 22 23 22 23 23 23 24 24 25 25 25 25 26 26 26 27 27 27 27
27 28 28 29 29 30 30 29 29 28 28 29 28 26 25 25 23 21 20 20 20 20 20 21 22 22 22 22 22 21 22 23 24 25 26 26 25 26 25 25 26 27 27
28 28 29 29 29 29 30 29 29 28 27 27 27 26 26 24 22 20 20 19 19 20 21 21 21 21 21 21 20 21 21 22 23 24 25 25 25 25 25 25 25 26 26
27 28 28 29 30 30 29 29 29 28 26 25 25 25 24 23 21 19 19 18 18 20 20 19 20 20 19 19 19 20 20 21 21 22 22 23 24 24 24 24 24 25 26
27 28 29 29 29 29 28 27 27 27 26 24 24 23 21 20 20 20 18 17 18 18 18 18 18 18 18 18 19 20 21 21 21 21 22 22 23 23 23 24 24 25 26
28 29 28 28 29 28 28 27 25 24 24 24 24 23 21 20 19 19 18 18 18 18 18 18 18 18 18 18 19 20 21 21 22 22 22 21 22 22 22 23 23 23 24
28 28 28 28 28 27 27 26 25 24 24 23 24 23 21 20 20 19 18 17 17 18 18 18 18 19 19 19 19 20 20 20 21 22 21 20 21 21 22 22 22 22 22
26 27 28 28 28 27 26 25 25 24 24 23 23 22 21 19 18 18 17 16 17 17 17 17 18 19 19 18 19 19 20 20 21 20 20 19 20 20 21 22 22 22 22
26 26 26 27 27 26 26 25 24 24 23 21 20 20 20 18 18 17 16 16 16 16 17 18 18 18 18 18 18 18 19 19 18 18 17 18 19 20 21 21 22 22 21
26 26 26 26 25 25 25 25 23 22 21 20 19 19 18 16 16 16 15 15 14 15 16 16 17 17 16 16 17 18 18 18 17 17 17 18 19 20 20 20 21 21 21
26 26 26 26 26 26 25 24 23 22 21 20 18 17 16 16 16 15 14 13 13 13 14 15 15 15 15 15 16 17 17 16 17 17 18 19 20 20 20 21 21 20 20
26 26 26 25 25 25 24 22 22 21 20 19 18 17 16 16 15 14 13 13 13 13 14 14 14 15 15 16 16 16 16 16 17 18 19 19 19 19 20 20 19 19 19
25 26 26 25 25 24 22 22 21 20 18 18 17 16 16 16 14 13 13 12 12 13 13 13 14 14 15 15 16 16 16 17 18 18 19 19 19 19 19 19 18 18 18
25 25 25 25 24 23 22 21 20 18 18 17 17 16 16 15 14 13 12 12 12 12 13 14 14 14 15 15 15 16 17 18 18 19 19 19 19 19 18 17 17 17 17
25 25 25 24 24 23 22 20 19 17 17 17 16 15 14 14 13 11 11 11 12 13 13 13 14 15 15 15 16 17 18 18 19 19 20 20 19 19 18 18 17 17 17
24 24 24 24 23 22 20 18 16 15 16 16 15 14 13 12 12 11 10 11 12 12 13 13 14 14 15 16 16 17 17 17 17 18 19 19 19 19 18 18 17 17 17
23 23 23 23 22 20 18 17 15 14 14 13 13 12 11 10 10 9 10 11 11 12 13 13 13 14 15 15 15 16 16 17 17 18 18 19 19 19 19 19 19 18 18
24 23 22 21 20 19 17 16 14 13 13 12 12 10 10 10 9 9 10 11 11 13 13 13 13 14 14 14 14 15 15 16 17 17 18 18 19 19 19 19 19 19 19
23 21 20 19 18 17 16 14 13 12 11 10 10 9 8 8 9 9 10 11 12 13 13 13 13 13 13 14 14 15 16 17 17 17 18 18 19 19 20 20 19 19 19

GEFSMW_500_meanwind_198.txt.gz
Wind_Speed
25 26 26 27 27 27 27 27 27 28 28 28 27 27 27 27 27 27 26 26 26 27 28 27 27 26 26 26 26 26 26 26 26 25 25 25 26 26 26 26 25 25 25
26 26 27 27 27 28 28 28 28 28 29 28 27 26 26 26 27 26 26 26 27 28 27 27 27 27 27 26 25 25 25 25 26 26 25 25 26 26 26 26 26 25 26
25 26 26 27 28 28 29 29 29 30 30 29 28 27 27 27 26 26 26 26 27 27 28 26 26 26 26 26 25 25 25 25 25 26 26 26 27 27 28 28 27 27 27
26 26 27 27 28 28 29 29 29 28 28 28 28 28 27 27 27 27 27 26 26 27 26 26 26 25 25 25 25 25 25 24 25 26 27 28 28 28 28 28 28 28 28
26 26 27 27 28 28 28 28 28 28 27 27 28 27 27 27 27 27 27 26 26 26 25 24 24 25 25 25 25 25 25 25 25 26 27 27 28 29 28 28 27 28 28
27 28 28 28 28 28 28 28 28 27 27 27 27 27 27 26 26 25 25 25 25 24 23 23 23 24 25 25 25 24 25 25 26 26 27 27 28 28 28 27 27 28 28
27 27 28 28 28 28 28 28 27 27 27 27 26 26 26 26 25 25 25 25 24 24 23 22 22 22 22 22 23 23 24 25 25 25 26 26 26 27 27 27 27 27 28
27 27 28 28 29 29 29 28 27 26 26 26 26 26 26 26 25 25 25 24 23 23 22 22 22 21 21 21 22 23 24 24 24 24 24 24 24 25 26 26 27 27 28
28 28 28 29 29 29 29 28 27 27 27 27 27 26 26 25 25 24 24 22 21 21 21 21 20 19 20 21 21 22 22 22 23 23 23 23 23 24 25 25 26 28 28
28 28 28 28 28 28 28 27 28 28 27 27 26 26 25 24 24 23 22 21 20 20 19 20 19 18 19 19 20 20 21 21 22 23 23 23 23 24 24 25 27 28 28
28 28 28 28 28 28 28 27 27 26 26 26 26 26 24 23 23 22 21 20 19 19 19 19 18 18 18 19 20 21 21 21 22 23 23 24 24 24 24 25 26 27 28
28 28 28 28 28 28 27 27 26 26 26 26 25 24 22 22 21 21 20 20 20 20 19 19 19 18 18 19 20 20 21 21 22 23 24 24 24 23 23 24 26 27 28
27 28 28 28 28 27 27 27 27 25 24 23 22 21 20 19 19 19 19 19 20 19 19 19 19 18 18 18 19 19 20 21 22 23 24 24 23 23 23 24 25 26 27
28 28 28 27 27 26 26 26 26 24 23 22 21 20 20 19 18 18 18 19 19 19 19 18 18 17 17 18 18 19 19 20 20 21 22 23 23 23 24 24 24 25 25
28 27 27 26 26 26 25 24 24 23 22 21 21 20 18 18 18 18 18 19 19 18 18 17 17 17 17 17 18 18 19 18 19 19 20 21 21 22 23 22 22 23 23
27 26 25 25 25 25 24 23 23 22 22 20 19 19 18 17 17 18 18 18 18 17 16 16 16 16 16 16 16 17 17 17 17 18 18 19 19 20 21 21 21 22 22
26 25 24 25 25 24 23 23 23 22 21 19 19 18 17 17 17 17 17 17 16 16 15 14 15 15 15 15 16 15 15 16 16 17 18 19 19 19 19 19 20 20 20
25 24 24 25 25 24 24 23 22 21 20 18 17 16 16 15 15 15 15 15 15 14 13 13 13 13 14 14 14 15 15 16 17 18 18 19 19 18 18 18 18 18 18
25 24 24 24 24 24 23 22 21 20 19 18 17 15 15 14 14 14 14 13 13 13 12 12 11 12 12 12 13 14 14 15 16 17 17 17 17 17 17 17 17 17 16
24 24 24 24 23 22 21 20 20 18 18 16 15 14 14 15 14 14 13 13 12 12 11 11 11 11 11 12 12 13 14 14 15 16 16 16 16 16 16 16 16 16 16
24 24 23 22 22 21 20 19 19 17 16 16 15 14 14 14 14 14 13 12 12 11 10 10 10 10 11 11 12 12 13 15 15 15 16 15 15 16 16 16 16 16 16
24 24 22 22 21 21 20 19 17 16 15 15 14 14 13 13 13 13 12 12 11 9 9 9 10 10 11 12 12 13 13 14 14 14 14 15 16 16 16 16 16 15 15
24 23 22 21 21 20 19 18 17 16 14 14 14 13 13 12 12 12 11 10 8 8 8 9 10 11 12 12 12 13 13 13 13 13 14 15 16 16 16 16 16 16 16
24 23 22 20 20 19 18 17 16 14 14 13 13 13 13 12 11 11 10 9 8 8 8 9 10 11 11 12 12 12 12 13 13 13 14 15 16 16 16 17 17 17 17
23 22 21 20 19 18 17 16 15 14 13 13 12 12 12 11 10 10 9 9 8 8 9 10 11 11 11 12 12 12 12 12 13 14 15 15 16 16 16 17 17 18 18
21 20 20 19 19 18 17 15 14 12 12 11 11 11 10 9 9 9 9 9 10 10 10 10 10 11 12 12 12 12 12 13 14 14 15 15 16 16 16 17 18 18 18

GEFSMW_500_meanwind_204.txt.gz
Wind_Speed
26 26 27 27 28 28 29 29 29 30 30 30 30 30 29 28 27 26 25 26 26 26 25 25 24 24 24 24 24 24 24 24 24 24 24 25 24 24 24 24 24 24 25
27 27 27 27 28 28 29 29 29 29 30 31 31 31 30 28 27 26 26 25 25 25 25 26 25 24 23 23 24 24 24 25 24 24 24 24 24 25 25 25 25 25 25
28 28 28 28 28 29 29 29 29 30 31 31 31 30 29 28 28 27 27 26 25 26 26 26 24 22 22 22 24 24 24 25 25 24 24 24 24 24 25 26 26 26 25
29 30 30 29 29 29 29 29 29 30 31 31 30 30 29 28 28 27 26 26 26 26 26 25 24 23 22 22 23 24 24 25 26 25 24 24 25 25 25 26 26 26 26
31 32 31 31 30 29 30 30 29 29 30 30 30 30 29 28 27 26 26 26 25 26 25 24 23 23 23 23 23 24 25 25 25 25 25 26 25 26 27 26 27 27 27
32 32 32 31 31 30 30 30 30 30 30 30 29 29 28 27 26 25 25 25 25 25 24 24 24 24 24 24 24 24 24 24 25 25 25 26 26 27 27 26 26 26 27
32 32 32 30 31 31 31 30 30 30 30 29 28 28 28 27 26 25 25 24 24 24 24 24 24 23 23 23 23 23 23 24 24 24 25 26 26 27 27 27 27 27 27
32 33 33 32 31 31 31 30 29 29 28 28 28 28 28 26 25 24 24 23 23 23 22 23 22 22 22 22 22 23 23 23 24 25 25 25 25 26 26 26 26 26 26
33 34 33 32 31 31 31 30 29 28 27 27 26 26 25 24 24 23 23 23 23 22 22 22 22 22 21 21 22 23 23 23 24 24 24 24 24 25 25 25 26 26 27
33 33 33 33 31 31 30 29 28 27 27 26 25 24 23 23 23 23 22 22 22 22 21 21 21 21 21 20 21 22 22 23 23 23 23 24 24 24 24 24 26 27 28
35 33 32 32 31 30 29 28 28 27 25 24 23 23 22 22 23 23 22 21 21 21 20 20 20 21 20 20 21 22 22 21 21 22 23 24 24 24 25 26 27 27 28
33 32 31 30 29 29 29 28 27 27 25 24 23 22 22 22 22 22 21 21 20 20 20 20 20 20 20 21 21 22 21 21 21 22 23 23 23 24 24 26 26 26 26
31 30 29 29 29 29 28 27 27 26 25 24 24 23 22 22 21 20 19 19 19 19 19 19 19 20 20 21 21 21 20 20 21 22 21 21 22 22 23 24 24 24 25
30 30 29 28 27 27 27 27 26 25 24 24 24 24 23 21 19 18 17 18 18 18 17 18 19 19 19 20 20 20 20 20 20 20 20 20 20 21 21 22 23 23 23
30 30 29 27 27 26 26 26 25 25 25 24 24 23 21 19 18 17 17 17 17 17 18 18 18 18 18 19 19 19 19 18 17 18 18 18 19 20 20 22 22 22 22
29 29 28 28 27 26 26 25 25 24 24 23 22 22 21 18 17 16 15 15 16 17 17 17 17 17 17 17 17 17 16 16 16 16 17 17 18 19 19 20 21 21 21
29 28 28 27 26 26 25 24 24 24 23 22 21 21 20 18 17 16 15 15 16 16 17 17 16 16 16 16 16 15 15 15 15 15 15 16 17 18 19 19 19 19 19
29 29 28 27 26 26 25 24 23 23 22 21 20 19 19 17 16 15 15 14 15 16 16 16 15 15 14 14 13 14 14 14 14 15 15 16 17 18 18 17 18 18 18
30 29 28 26 26 25 24 23 22 22 21 20 18 18 18 16 15 15 15 15 15 15 15 15 14 13 13 13 13 13 13 14 14 14 15 16 17 17 17 17 17 17 17
29 28 27 26 25 24 23 22 21 20 20 19 18 18 17 16 16 15 14 15 15 15 14 13 12 12 12 12 12 13 13 14 13 14 15 16 16 16 16 16 16 16 16
28 27 27 25 24 23 22 21 20 20 19 19 18 17 16 16 15 14 14 14 14 13 13 12 12 12 12 12 12 13 13 13 14 14 15 15 15 15 15 15 16 16 16
27 26 26 24 23 22 21 21 20 19 19 18 17 16 16 15 15 14 13 13 13 13 12 12 12 12 12 12 12 13 13 13 14 15 15 14 14 15 14 14 15 15 16
26 26 25 24 22 21 20 19 19 18 18 18 17 16 15 14 14 13 12 12 12 12 11 11 11 12 12 12 13 13 13 13 14 15 15 14 14 14 14 15 15 16 16
26 25 24 23 21 20 19 18 18 18 17 16 16 15 15 14 13 12 12 12 11 11 11 12 12 13 13 12 12 13 13 14 14 15 14 14 14 15 15 15 15 15 16
25 23 22 21 20 19 17 16 16 16 15 15 15 15 14 12 12 12 12 12 12 12 12 12 13 14 14 14 13 13 12 13 14 14 14 14 14 15 15 15 15 16 16
22 21 20 19 17 16 16 16 16 15 15 14 14 13 12 12 12 12 12 11 11 11 12 13 14 14 15 14 13 13 13 13 13 14 15 15 15 15 15 15 16 16 17

GEFSMW_500_meanwind_210.txt.gz
Wind_Speed
25 26 25 25 25 25 25 25 25 26 26 27 27 27 27 27 27 27 26 25 25 23 23 23 22 22 23 22 21 21 22 22 22 22 21 22 22 22 22 22 22 23 23
26 27 26 25 26 26 27 26 26 26 27 27 27 28 28 28 27 27 26 25 24 23 23 23 22 22 22 22 21 22 22 22 22 22 22 22 22 22 22 22 23 23 23
26 27 28 28 27 27 28 28 28 28 28 29 29 29 28 27 26 26 26 25 23 23 22 22 22 23 22 22 22 22 22 22 22 22 21 21 21 22 22 23 23 23 24
27 28 29 30 29 28 29 29 30 30 30 29 29 28 27 27 26 25 25 25 24 23 23 23 22 22 21 21 22 22 22 21 21 21 22 22 22 22 22 23 23 24 24
28 29 30 30 30 30 31 31 31 31 30 29 29 28 27 26 26 26 25 24 24 23 23 23 22 22 22 22 21 21 20 21 21 21 22 23 22 22 23 23 24 24 24
27 29 30 31 32 32 33 32 31 30 30 29 28 27 26 25 25 24 24 23 23 23 23 21 21 21 21 20 20 20 21 21 21 21 22 22 22 22 22 23 24 24 25
27 28 30 31 32 32 32 31 31 30 30 29 28 27 26 25 24 23 23 23 23 21 21 21 21 20 20 20 20 20 20 20 21 21 22 22 22 23 23 23 23 24 25
29 30 31 31 31 31 31 31 30 30 30 29 27 26 25 25 23 22 22 21 21 21 20 20 20 20 19 19 20 20 20 21 21 22 23 23 23 23 24 24 24 24 25
30 30 30 30 30 31 31 30 29 30 29 28 26 25 24 22 20 19 19 19 20 20 19 19 19 19 19 19 20 19 20 20 21 22 22 23 23 23 23 24 24 25 25
30 30 30 29 29 30 30 30 29 29 28 27 25 23 22 20 20 18 17 17 17 19 19 17 18 18 18 19 19 18 18 19 20 21 21 21 22 22 22 23 24 24 24
30 30 30 29 29 30 29 28 28 27 27 26 23 21 20 19 19 18 17 17 17 17 17 17 17 17 17 18 18 18 18 19 20 21 20 19 19 20 21 21 22 22 23
30 30 30 29 30 30 28 27 26 26 25 24 23 20 19 18 18 17 17 16 16 15 16 16 17 17 16 16 17 17 17 18 19 19 18 18 17 17 18 19 20 21 21
29 29 29 29 29 29 27 27 26 25 24 23 21 19 18 18 17 16 16 15 14 14 15 15 16 15 15 16 16 17 18 19 19 19 17 17 17 17 18 18 18 19 20
28 29 29 28 28 27 27 27 26 25 24 22 20 19 18 17 17 15 14 14 13 13 13 13 14 14 15 16 16 17 17 18 18 17 16 16 17 17 16 17 18 18 19
28 28 28 28 27 27 26 26 25 24 23 22 20 19 18 17 16 15 14 14 13 13 12 12 13 13 14 15 15 16 15 16 16 15 15 15 15 15 16 17 18 18 19
29 29 28 27 27 26 25 25 24 23 22 21 20 18 17 17 16 15 13 13 14 13 12 13 13 13 13 14 14 15 15 15 14 14 14 14 14 15 16 17 17 18 18
28 27 27 27 27 26 25 25 24 23 22 21 19 18 17 16 15 15 13 13 12 12 12 12 12 13 13 13 14 14 14 13 13 13 14 14 14 14 15 16 16 17 18
27 28 28 28 27 27 26 25 24 22 21 20 19 18 16 14 14 14 14 13 13 12 10 11 12 12 13 13 14 14 13 13 13 13 13 13 14 14 15 15 16 16 17
28 28 28 28 28 27 25 23 22 21 20 18 17 17 15 15 15 15 14 13 12 11 10 12 12 12 12 13 13 13 13 13 12 13 13 13 14 14 15 15 15 16 16
28 28 28 27 26 25 23 22 21 20 18 17 16 15 15 15 15 15 14 13 13 13 13 13 13 12 12 13 13 12 12 12 12 13 13 13 13 14 14 15 15 16 16
28 27 26 24 24 22 21 21 20 19 17 16 15 15 16 16 16 15 14 14 14 14 14 13 13 13 13 13 12 12 12 12 12 12 12 13 13 14 14 15 15 15 16
27 27 26 24 22 21 20 20 18 17 16 16 16 17 17 17 16 15 15 15 15 15 14 14 14 13 13 13 12 12 12 12 12 12 13 13 13 13 14 14 15 15 16
26 26 25 23 21 21 20 18 17 17 17 17 17 17 17 16 15 15 14 15 15 15 15 15 15 14 13 13 12 12 11 11 12 12 12 12 12 13 14 15 15 15 16
25 25 23 21 20 19 18 18 18 18 17 17 17 17 16 15 14 14 14 15 15 15 15 14 14 13 12 12 12 11 11 11 11 11 12 12 13 14 15 15 15 15 16
24 23 22 20 19 19 19 19 19 18 17 16 16 16 15 15 15 15 15 15 16 15 14 13 12 12 11 11 11 11 11 10 10 10 12 13 13 14 15 15 16 16 16
24 22 21 20 19 19 19 19 19 18 17 16 16 15 15 15 15 14 14 14 14 13 12 11 10 11 10 10 10 11 11 10 10 11 12 14 14 15 15 15 15 16 16

GEFSMW_500_meanwind_216.txt.gz
Wind_Speed
22 23 23 23 23 23 24 24 25 26 27 26 26 27 27 26 25 26 25 25 25 25 24 23 23 23 23 24 24 24 24 23 24 24 23 24 24 24 24 25 25 25 24
22 23 23 23 24 24 24 26 27 27 27 28 28 28 27 26 26 25 25 25 25 25 24 24 24 24 24 23 24 24 23 24 24 23 23 23 24 24 24 24 24 25 24
22 23 24 24 25 25 26 28 29 29 29 29 29 28 27 27 26 25 25 24 25 26 25 25 25 25 24 23 23 23 24 24 23 23 23 23 24 25 24 25 24 24 25
22 23 24 25 26 26 26 28 29 30 31 30 29 28 27 26 25 25 25 25 25 25 25 25 24 23 23 23 23 24 24 24 24 23 23 23 24 25 25 25 25 25 25
24 25 26 26 26 26 27 29 30 31 31 30 29 27 26 26 25 25 24 24 25 25 25 25 24 23 22 21 22 23 24 24 24 24 24 23 24 24 25 25 25 25 25
25 25 26 27 27 27 28 29 30 30 30 29 27 26 25 24 24 24 23 23 23 24 23 24 23 22 22 21 22 23 23 24 24 24 24 23 23 23 24 24 25 25 25
26 26 26 27 28 28 29 29 30 30 29 27 26 25 25 24 24 24 24 23 22 21 22 22 22 21 21 21 21 22 22 22 23 23 23 23 23 23 23 24 25 25 26
27 27 28 28 29 29 29 30 29 29 27 26 25 24 24 23 22 23 23 21 21 21 21 22 22 22 21 20 21 22 22 22 22 22 22 22 22 23 24 24 25 26 26
27 27 28 28 29 29 29 29 29 28 27 25 24 23 23 23 23 23 22 21 21 21 20 20 21 22 21 21 21 22 23 22 21 22 23 22 22 23 24 24 25 25 25
28 26 27 27 28 28 28 28 28 27 26 25 25 24 23 23 23 22 21 20 21 21 20 19 20 20 21 21 21 21 22 23 22 22 23 22 22 22 23 24 25 25 25
27 25 26 26 27 27 28 27 27 26 25 25 24 24 23 23 22 20 20 20 19 19 19 18 19 20 20 20 20 20 21 21 21 21 21 22 22 22 22 23 23 23 23
25 24 24 25 25 26 27 26 25 25 25 25 24 23 23 22 21 20 19 19 19 19 18 17 18 18 19 19 19 19 19 20 20 20 20 20 21 21 21 20 20 21 22
24 24 24 24 25 25 25 25 24 25 25 25 24 23 22 21 20 19 19 19 18 18 18 17 17 17 18 19 18 18 18 18 18 18 18 18 18 19 20 20 20 21 21
23 23 23 24 25 25 25 25 24 25 25 24 24 23 22 21 20 19 19 18 17 17 17 18 18 18 17 16 15 15 16 16 17 17 17 17 18 19 19 20 20 20 20
22 23 24 25 25 26 26 26 25 25 25 24 24 23 22 21 21 20 19 18 18 18 17 17 17 17 16 16 15 15 16 16 16 16 17 17 18 18 18 19 18 18 18
23 24 24 25 26 26 26 25 24 24 24 24 24 23 22 21 21 20 18 17 17 17 16 17 17 17 17 16 16 16 16 17 17 17 17 18 18 18 18 18 18 18 18
24 25 25 26 26 26 26 25 24 24 24 23 23 23 23 22 21 20 18 17 17 16 16 17 17 17 17 18 17 17 17 17 17 17 17 18 19 19 19 19 18 18 17
25 26 26 26 26 27 26 25 24 24 24 23 23 23 23 21 21 20 19 18 17 17 17 17 17 17 17 18 17 17 17 17 17 17 17 18 18 18 18 18 18 17 17
25 26 26 26 26 26 26 25 24 24 24 23 23 23 22 21 20 20 20 20 19 19 18 18 17 17 17 16 17 17 17 17 17 17 17 18 17 16 16 17 17 17 16
26 26 26 26 26 26 26 25 24 24 23 22 22 22 21 21 20 21 22 21 19 18 18 17 17 17 16 16 16 16 16 17 17 17 17 17 16 16 16 16 16 16 16
26 26 26 26 26 26 26 25 24 24 23 22 22 21 21 21 21 22 22 20 19 18 17 17 16 16 15 15 16 16 16 16 16 16 15 16 15 15 15 16 16 16 17
26 26 26 27 26 26 26 25 24 23 22 21 21 21 20 20 21 21 21 20 19 18 17 16 16 16 15 15 14 15 15 15 15 15 15 15 15 15 15 15 15 16 17
26 26 26 27 26 26 26 25 24 23 22 21 21 21 21 21 21 20 20 19 18 17 16 16 15 15 15 15 16 15 14 14 14 14 15 15 14 14 14 15 16 16 17
27 26 26 27 27 26 25 24 23 23 22 22 22 22 22 21 20 20 19 18 17 17 17 16 14 14 15 15 14 14 15 15 14 14 14 14 14 14 15 15 15 15 16
28 27 26 26 26 25 24 24 24 23 23 23 22 21 21 21 20 19 18 18 18 17 17 16 15 14 14 14 14 14 14 13 13 13 13 13 14 14 14 14 15 15 15
28 27 26 26 26 25 25 24 24 24 24 23 22 21 21 20 19 18 17 17 17 16 16 15 15 15 15 14 14 14 13 12 12 12 13 13 12 13 14 15 15 15 16

GEFSMW_500_meanwind_222.txt.gz
Wind_Speed
20 21 22 22 22 22 21 22 22 23 23 24 25 25 24 24 24 25 25 25 25 24 24 24 24 24 24 23 23 24 24 23 23 23 23 24 25 25 26 26 26 26 26
21 22 23 23 22 21 21 22 23 24 24 25 25 25 24 24 25 25 25 25 24 24 24 24 24 23 23 23 23 24 24 23 23 23 23 23 24 25 25 25 26 26 25
21 22 22 22 21 22 23 23 24 24 24 25 25 25 25 25 24 24 24 24 24 23 24 24 24 24 24 24 24 23 24 24 24 24 23 23 22 23 24 24 25 25 25
22 22 22 22 23 24 24 24 24 24 24 24 24 24 25 24 24 24 23 23 24 23 23 24 24 24 24 24 23 23 23 24 24 24 23 23 23 24 24 25 25 26 26
22 21 21 22 24 24 25 25 25 25 25 25 24 24 24 24 24 24 23 22 22 21 22 22 23 24 24 24 22 22 22 22 23 24 23 23 23 23 25 25 26 26 26
22 22 22 23 24 24 25 26 26 26 25 24 24 25 24 24 24 24 23 22 21 21 22 22 22 23 24 24 23 22 23 22 22 23 23 24 23 23 24 24 26 27 26
23 23 23 23 23 24 25 26 26 25 24 25 24 24 24 24 24 23 23 22 21 22 22 21 21 22 23 23 23 22 23 23 23 24 24 24 24 24 24 25 26 26 26
23 24 23 23 24 24 24 25 25 24 24 24 24 24 24 23 23 23 22 22 21 21 21 21 21 21 22 22 22 23 23 24 24 25 25 25 25 25 24 25 26 26 26
23 23 23 24 25 24 24 24 25 23 23 23 23 23 23 22 22 21 21 21 21 21 21 21 21 20 21 21 22 23 24 24 24 25 25 25 25 25 25 24 25 26 26
24 24 24 25 25 25 26 25 24 23 23 23 23 23 23 22 22 21 21 21 21 21 22 22 21 21 20 21 22 22 22 22 22 23 24 24 25 26 25 25 24 24 26
24 24 25 25 25 26 25 25 24 24 23 23 23 23 22 22 21 22 22 22 22 22 22 21 21 22 22 21 22 22 22 22 23 22 23 23 24 25 25 24 24 24 24
24 24 24 25 26 26 25 25 25 24 24 24 23 22 22 21 21 21 21 21 21 21 21 21 21 21 21 21 21 21 22 22 22 22 22 23 23 23 23 24 24 24 24
24 24 25 25 25 25 25 25 25 24 24 24 23 22 21 21 21 21 21 20 20 21 20 20 20 20 20 20 20 19 19 20 21 21 21 21 23 23 23 23 23 23 23
23 24 24 24 24 25 25 25 25 24 24 24 23 22 22 22 21 21 21 20 21 21 20 19 19 19 19 19 18 18 18 18 19 20 20 21 21 22 22 22 23 23 23
24 25 25 24 24 25 24 24 24 23 23 23 22 22 22 21 21 21 22 21 21 21 20 19 18 18 18 19 18 18 18 19 20 20 21 20 20 20 21 22 23 23 23
25 25 25 25 24 23 24 24 24 24 23 22 21 21 21 21 22 22 22 22 21 20 20 18 18 18 18 19 19 19 19 19 19 20 19 20 20 20 21 21 21 21 22
25 26 25 24 24 24 24 23 24 24 22 21 21 20 20 20 22 22 22 20 20 19 19 18 18 18 18 19 19 19 18 18 19 19 20 20 20 21 21 21 21 21 21
25 24 24 23 24 24 24 24 24 23 23 22 22 21 21 22 23 22 21 20 19 19 18 18 17 18 18 18 18 19 18 18 19 20 19 19 19 20 20 20 20 20 20
24 24 23 23 23 23 24 24 24 23 23 23 22 22 22 23 22 22 21 20 19 18 19 18 18 18 18 18 18 18 18 18 18 18 18 18 19 20 19 19 18 18 19
25 24 23 23 23 23 23 24 24 23 23 23 23 22 23 22 22 21 21 20 19 18 18 18 18 17 17 17 17 17 17 16 17 17 17 17 17 18 19 20 19 18 18
24 24 24 24 24 24 24 24 23 23 23 23 23 23 23 23 22 21 20 19 18 17 17 17 16 16 16 16 15 16 16 16 16 16 17 17 16 17 18 18 18 18 19
24 24 24 24 24 24 24 24 24 24 23 23 23 23 22 22 21 20 19 18 17 15 16 15 15 15 15 15 15 15 16 16 15 15 16 17 17 17 17 18 18 19 19
25 25 25 24 24 24 24 24 24 23 23 23 23 22 21 21 20 19 18 17 16 15 15 16 16 16 15 15 15 14 14 14 15 15 15 16 16 17 18 18 19 19 19
25 25 24 24 24 24 24 24 23 23 23 23 23 23 22 21 19 18 18 18 17 16 17 17 17 16 15 14 14 13 14 14 14 14 15 15 15 15 16 17 18 19 20
25 25 24 24 24 24 24 24 24 24 24 24 24 23 22 20 19 18 19 18 17 17 17 17 16 15 14 13 13 13 13 13 13 13 13 13 14 15 15 16 18 19 19
25 24 24 25 24 24 24 24 24 25 25 25 24 23 21 19 18 19 18 18 17 17 16 15 15 14 14 13 13 13 13 12 12 13 13 13 14 14 15 15 16 16 17

GEFSMW_500_meanwind_228.txt.gz
Wind_Speed
22 22 22 23 22 22 22 22 22 23 23 23 23 23 23 23 23 23 23 23 23 23 23 23 23 23 22 22 23 23 23 23 24 24 24 24 24 23 24 24 24 24 24
23 23 23 24 23 23 23 23 23 23 23 24 24 24 25 25 25 25 24 24 24 23 24 24 24 24 23 22 22 22 22 22 24 24 24 24 25 24 24 24 24 24 25
24 24 24 24 24 24 24 24 24 24 25 25 25 26 26 26 26 25 25 25 25 24 24 24 24 24 23 23 23 23 22 22 22 23 24 24 24 24 24 25 24 24 24
25 25 25 25 24 24 24 25 25 25 26 26 26 26 26 25 25 24 24 25 25 25 25 25 25 25 24 24 24 24 23 23 22 23 24 24 24 24 24 24 25 25 24
25 26 25 24 25 25 26 26 26 26 26 26 25 25 25 24 24 23 24 24 25 25 25 25 25 25 24 24 24 24 24 23 23 23 23 23 24 24 25 25 25 25 25
26 26 25 25 25 26 26 26 26 26 25 25 24 24 24 24 23 23 23 24 25 25 25 24 24 24 24 24 25 25 24 24 24 24 23 24 24 24 24 25 25 26 26
26 26 26 26 25 26 25 25 25 26 26 25 25 25 24 24 24 24 24 24 24 24 24 24 24 24 25 25 25 25 25 25 25 24 24 24 24 24 24 25 25 26 25
26 27 26 26 25 25 25 26 26 26 26 25 25 24 23 23 24 24 24 24 24 24 23 24 24 25 25 26 25 25 25 25 25 24 24 24 24 24 24 25 25 24 24
27 26 26 26 26 25 26 27 27 27 26 25 25 24 23 23 23 23 24 24 24 23 24 24 24 25 25 26 25 25 25 25 25 24 24 24 24 24 24 25 25 24 24
27 26 26 26 27 27 27 27 27 26 26 25 25 24 24 23 23 23 24 23 23 23 23 24 25 25 25 25 25 26 26 25 25 25 24 23 24 25 25 25 25 25 25
26 26 27 27 28 28 28 27 25 25 25 25 25 25 24 24 23 24 23 23 23 24 24 24 25 24 24 24 25 25 25 25 24 24 24 24 24 25 25 25 25 25 25
25 26 26 27 27 27 27 26 26 25 25 25 25 25 24 24 23 23 23 23 24 24 25 25 24 24 23 24 24 24 24 24 24 24 24 24 25 26 26 25 25 25 24
25 25 26 26 27 27 27 26 25 25 25 25 25 24 25 25 24 23 23 23 23 24 24 24 24 24 23 23 23 23 23 23 23 24 24 25 25 25 25 25 24 23 22
25 26 26 26 26 26 26 26 26 26 25 25 25 25 24 24 24 24 23 23 23 23 23 23 23 23 22 23 23 23 23 23 23 23 24 25 25 25 25 24 24 24 23
25 26 26 26 26 26 26 27 26 26 26 25 25 24 24 23 23 23 22 22 22 23 23 22 22 23 23 23 23 24 24 23 23 23 23 23 23 24 23 23 23 22 23
26 28 26 26 26 26 27 26 26 26 26 25 25 24 23 23 23 22 21 21 22 22 22 21 22 22 23 23 24 23 22 22 22 22 22 22 22 22 21 21 21 21 21
26 27 27 26 27 27 27 27 26 26 26 26 25 24 24 23 22 21 21 22 22 22 22 22 22 21 21 22 22 21 20 20 21 20 20 19 19 19 18 18 19 20 20
26 27 27 27 27 27 27 27 26 26 26 25 24 23 23 23 22 22 22 22 23 23 23 23 22 21 20 20 20 19 19 18 19 19 18 17 17 18 18 18 19 20 20
26 27 27 27 27 27 27 26 26 26 25 24 24 24 23 23 23 23 23 23 23 23 23 22 21 20 20 19 19 18 18 17 17 17 17 17 17 17 18 18 19 20 20
27 27 27 27 27 28 27 27 27 26 26 25 25 25 24 24 24 24 23 22 22 22 21 20 20 20 19 19 18 18 17 16 16 17 17 18 18 19 18 18 19 20 21
28 27 27 27 28 28 27 27 26 26 26 26 26 25 25 25 24 24 22 22 22 21 20 20 20 19 19 19 19 19 18 18 17 17 18 19 19 20 20 20 20 21 21
28 27 28 28 27 27 27 26 26 26 26 26 26 25 25 25 24 23 22 21 21 21 21 20 20 19 19 19 19 19 19 18 17 17 17 18 19 20 20 20 20 20 21
28 27 28 27 27 26 26 26 25 25 25 26 25 25 25 25 24 23 22 21 21 20 20 20 20 19 19 18 18 18 18 18 18 17 17 18 18 18 19 19 20 20 21
28 27 27 27 27 27 26 26 25 25 25 25 25 26 26 25 24 22 21 20 20 20 19 19 19 18 18 17 17 17 17 17 18 17 17 17 16 17 18 19 20 20 19
28 27 27 27 27 26 26 26 25 25 25 25 26 26 26 24 23 22 21 20 19 19 19 19 19 19 18 17 17 16 16 16 16 16 15 16 16 17 18 18 18 19 19
28 28 28 27 27 27 27 27 26 26 26 26 27 26 25 24 22 21 20 20 20 19 19 19 18 18 18 17 16 16 15 15 15 15 15 15 15 16 16 17 18 18 18

GEFSMW_500_meanwind_234.txt.gz
Wind_Speed
19 18 18 19 21 22 21 22 22 22 22 21 21 21 20 20 20 21 21 21 21 21 21 21 21 21 20 20 19 19 20 20 20 20 20 21 22 22 22 23 23 23 23
21 20 19 20 21 22 22 22 23 23 22 21 22 21 22 22 22 22 22 22 23 23 23 22 22 22 22 21 21 21 20 20 20 20 20 20 21 22 22 23 24 24 24
20 19 20 22 22 22 22 23 23 23 22 22 22 22 23 23 23 23 23 24 24 23 23 23 23 23 23 22 21 22 21 21 21 21 21 20 20 20 22 23 24 24 24
20 22 22 22 23 23 22 23 23 22 22 23 23 23 22 23 23 23 23 24 24 23 23 23 23 23 24 23 23 23 22 22 22 22 22 22 22 22 22 23 24 24 24
19 21 22 22 23 24 23 24 23 23 23 23 24 24 24 23 22 22 23 23 24 23 23 23 24 24 25 25 24 24 24 24 23 23 23 23 23 23 23 23 24 25 25
20 22 23 23 23 23 24 24 23 23 22 23 24 24 24 23 22 22 23 23 23 23 23 23 24 25 25 24 25 25 25 25 25 24 24 24 24 24 24 24 24 24 26
20 22 23 23 23 24 24 23 23 23 23 23 24 24 24 23 23 23 23 22 22 22 23 24 24 25 25 26 26 25 25 26 25 25 25 25 25 25 25 25 24 24 25
21 22 22 23 23 24 24 22 22 23 23 23 24 24 24 23 22 22 22 22 22 23 23 24 24 25 25 26 26 26 26 26 26 25 25 25 26 26 26 26 26 26 26
21 22 22 23 23 24 24 23 22 23 23 24 24 23 22 21 21 21 21 22 22 23 24 24 24 24 25 26 26 26 26 26 26 26 26 27 27 27 27 26 27 27 27
23 23 22 22 23 23 24 24 23 23 24 24 24 23 22 21 21 21 22 22 22 23 23 24 24 24 24 25 25 26 26 26 27 27 27 27 27 28 27 26 26 26 26
22 23 23 22 22 23 24 22 23 24 24 23 23 23 22 21 21 22 22 22 23 23 23 23 24 24 24 24 25 26 27 27 27 28 28 28 28 28 28 26 26 25 26
22 23 23 23 23 23 23 23 24 24 24 24 23 23 22 22 22 22 22 22 22 23 23 23 23 24 25 24 24 25 25 26 26 27 27 27 27 27 27 26 26 25 25
22 22 23 23 23 23 23 24 25 25 24 24 24 23 23 22 22 22 22 22 22 22 23 23 23 24 24 24 24 24 25 25 26 27 26 26 26 26 26 25 25 25 25
22 23 23 23 23 24 24 25 25 26 25 25 24 24 24 23 23 22 21 21 22 22 23 23 23 23 22 23 23 24 25 25 25 25 25 25 24 24 25 26 26 25 25
22 23 24 23 23 25 25 26 26 26 26 26 24 24 24 24 23 22 22 22 22 23 22 22 23 23 23 22 23 23 24 24 24 24 24 24 24 24 25 25 26 26 25
24 24 24 25 25 26 26 27 27 26 26 25 24 24 24 24 23 23 23 24 24 24 23 22 22 22 22 23 23 23 23 23 23 23 22 23 24 23 24 24 24 25 25
25 24 24 25 27 28 27 27 26 26 25 25 24 24 24 24 24 25 25 25 25 24 23 23 23 23 23 23 23 23 22 22 22 22 22 23 23 22 22 23 23 23 24
24 24 25 27 27 27 27 26 26 26 26 25 25 24 25 25 26 27 26 26 24 24 24 24 24 23 23 23 22 22 21 20 20 20 21 22 23 22 23 23 23 23 23
24 26 27 28 28 28 27 27 27 27 26 26 26 26 26 26 26 26 26 25 24 24 24 23 23 23 22 21 20 20 19 19 19 19 20 20 21 22 23 23 23 23 22
26 27 28 28 28 28 28 28 27 27 27 27 27 27 27 27 26 26 25 24 23 23 23 22 22 21 19 19 18 18 18 19 19 19 19 19 19 20 21 22 22 23 23
27 28 28 28 28 28 28 27 27 26 26 27 27 27 27 27 26 25 24 23 22 21 21 21 20 20 19 18 19 18 17 17 18 18 18 19 19 19 21 22 23 23 24
27 27 27 27 28 28 27 27 27 26 27 27 26 26 26 26 25 24 24 22 21 20 20 20 19 18 18 18 18 17 17 17 17 18 18 18 18 19 19 20 21 23 23
27 27 27 27 28 28 28 28 27 27 27 26 26 26 25 24 24 24 23 21 20 20 19 19 18 18 18 17 17 16 15 16 16 17 17 17 17 17 18 19 20 21 22
27 27 27 28 28 27 27 27 27 27 26 26 26 25 25 24 24 23 22 21 20 19 19 18 18 18 18 17 16 15 15 16 16 17 17 16 16 16 17 18 19 19 19
27 27 27 28 28 27 27 27 27 26 26 26 26 26 26 25 23 23 22 21 20 19 19 18 17 17 17 17 16 16 16 16 16 16 15 14 14 15 15 16 17 18 19
27 28 28 28 28 27 28 28 28 27 27 27 26 26 25 24 23 22 21 21 21 20 19 18 18 18 18 17 16 16 16 16 16 15 14 14 14 15 16 17 17 18 18

GEFSMW_500_meanwind_240.txt.gz
Wind_Speed
18 18 18 19 20 21 20 20 20 20 21 20 20 20 19 19 19 20 20 20 20 21 20 21 21 21 21 22 23 23 23 23 22 23 22 22 23 23 24 24 24 24 24
18 19 19 19 20 20 20 21 21 21 21 21 20 19 19 19 20 20 20 20 21 21 22 22 22 22 22 23 23 24 24 23 23 23 23 23 23 23 24 24 25 24 24
19 19 19 19 19 19 20 21 21 22 22 21 21 20 20 20 20 20 20 21 22 22 23 23 23 22 22 23 23 24 24 24 24 23 23 23 23 24 25 26 25 24 25
20 20 20 20 20 20 21 21 22 22 22 21 21 21 20 20 20 21 21 21 22 23 23 24 23 24 24 24 24 24 24 25 25 25 25 25 25 25 25 25 25 25 25
20 19 20 20 20 20 20 21 22 21 21 21 21 21 21 21 21 21 21 21 21 22 22 23 24 24 24 24 25 25 25 25 26 26 26 26 26 26 26 26 26 26 27
20 20 19 19 20 20 21 21 21 22 22 22 22 22 22 22 22 22 22 21 21 21 22 23 24 25 26 26 26 26 25 26 26 27 27 27 26 27 27 27 27 27 27
19 19 19 20 20 21 22 21 22 23 22 22 22 23 23 22 22 22 21 21 21 22 22 23 24 25 26 27 26 27 26 27 27 27 27 27 27 27 27 28 28 27 27
21 21 21 21 21 22 22 22 23 23 23 23 23 24 23 22 22 21 21 21 22 22 23 24 25 25 26 26 26 27 27 27 28 27 27 27 27 27 28 28 28 27 28
22 21 21 21 22 22 23 24 24 24 24 24 23 23 23 23 22 21 22 22 22 23 24 25 25 25 26 26 26 27 28 28 28 28 28 29 28 28 28 28 28 28 28
22 21 21 22 22 23 24 25 26 25 24 24 23 23 24 23 23 23 23 23 23 23 24 24 25 25 25 26 27 27 28 29 29 30 30 29 29 30 30 29 30 30 29
21 21 21 22 22 24 24 24 24 24 24 23 23 24 24 23 23 24 23 24 24 24 25 25 25 25 25 26 26 27 28 29 29 30 30 31 31 31 30 30 30 30 29
21 21 21 22 23 24 24 24 24 25 24 23 23 23 23 23 23 23 24 24 24 24 25 25 25 25 26 25 26 26 27 27 28 29 29 30 31 31 30 30 30 29 29
21 21 22 22 22 23 23 24 24 24 25 24 24 23 24 23 23 24 24 23 23 23 24 24 25 25 24 25 25 26 27 27 27 28 28 29 29 29 29 29 29 28 28
21 22 22 22 22 22 23 24 24 25 25 24 24 24 24 24 23 23 24 23 23 23 24 24 24 24 24 25 25 26 26 26 26 26 27 27 27 28 28 28 28 28 28
21 21 22 22 22 23 23 24 25 25 25 25 24 24 24 24 24 24 24 24 23 24 24 25 24 24 25 25 25 25 25 26 26 25 25 26 26 27 28 29 29 28 28
20 21 21 22 22 23 24 24 25 26 26 26 26 25 25 25 25 25 25 25 25 24 25 25 25 24 23 24 23 24 25 26 26 25 25 26 26 27 27 28 28 28 28
21 21 21 22 23 23 24 25 26 26 27 26 26 26 26 25 25 26 25 25 25 25 25 24 24 23 23 23 23 23 24 24 25 26 26 27 27 28 28 29 29 29 29
23 23 23 23 24 24 25 26 27 27 27 27 27 27 26 26 26 26 26 25 24 25 25 24 24 23 23 23 23 23 23 23 23 24 25 25 26 26 27 29 29 29 29
24 24 25 25 25 25 26 26 27 28 28 28 27 27 26 26 27 26 26 25 25 25 25 24 23 23 23 22 22 21 22 21 21 21 22 24 24 24 25 26 26 27 28
25 25 26 26 26 26 26 27 28 27 28 28 28 27 27 26 26 26 26 25 25 25 25 23 23 22 22 22 21 21 20 21 21 21 21 22 23 23 24 24 24 25 26
26 26 26 26 26 26 26 27 28 28 28 28 28 28 27 27 26 26 26 25 24 24 23 23 22 22 21 21 21 21 21 21 20 20 20 21 22 22 23 23 23 24 25
25 26 27 27 28 27 27 27 28 28 28 28 28 28 27 27 27 26 26 25 24 22 22 22 22 21 21 21 21 21 21 21 20 20 20 20 20 21 21 21 21 22 22
26 26 27 28 28 27 27 28 28 28 28 28 28 28 27 28 27 26 25 24 23 23 23 22 22 21 21 20 20 19 19 20 20 19 19 19 19 19 19 18 18 18 19
26 27 27 27 27 26 26 27 28 27 27 28 28 29 28 28 27 26 25 24 24 23 23 22 21 21 20 20 20 20 19 18 18 18 19 19 19 18 18 18 18 18 18
27 27 27 27 26 26 27 28 28 27 28 29 29 29 28 28 27 26 25 24 23 23 22 22 22 21 20 19 19 18 17 17 17 17 17 18 18 17 17 17 17 18 18
27 26 26 26 27 26 27 27 28 29 29 29 28 28 28 27 26 25 24 24 23 23 23 22 21 21 19 19 18 17 17 16 16 17 17 16 16 17 17 17 17 18 18

GEFSMW_500_meanwind_246.txt.gz
Wind_Speed
17 17 16 16 17 17 17 17 17 17 17 17 17 18 18 18 19 19 19 19 19 19 20 19 19 19 19 19 19 19 20 21 22 23 23 24 24 24 23 23 23 23 23
18 17 17 18 18 18 18 18 19 19 19 19 19 20 20 20 21 21 21 20 20 21 21 20 20 20 20 20 21 21 21 21 22 22 23 23 24 24 24 24 24 24 24
19 18 18 19 19 19 19 19 19 20 21 20 20 21 22 22 22 21 21 21 21 21 22 21 21 21 21 21 22 22 21 21 21 21 21 22 23 24 25 25 25 25 26
19 19 20 20 20 20 20 21 21 21 22 22 22 22 22 22 22 22 22 22 22 22 21 22 22 22 22 22 21 22 21 21 21 22 22 23 24 25 25 26 26 26 27
20 20 20 21 21 21 21 21 21 22 22 22 23 22 22 22 22 23 22 22 22 22 21 21 22 22 23 22 23 24 24 24 23 23 23 24 25 26 27 27 27 28 28
20 20 20 21 22 22 21 22 22 22 22 22 23 23 23 22 22 22 22 21 21 21 20 21 21 22 23 23 24 25 25 25 25 25 25 26 27 27 28 28 29 29 29
20 20 20 21 22 22 22 22 22 22 22 23 23 24 23 22 22 21 21 20 21 20 20 22 23 23 24 24 25 25 26 27 26 27 27 27 28 29 29 29 30 30 30
21 21 21 21 21 21 22 22 22 22 23 23 24 24 23 22 22 21 21 20 20 21 21 23 25 25 25 25 25 26 26 27 27 28 28 29 29 30 30 30 31 31 31
21 21 21 21 21 21 21 20 21 22 23 23 24 24 23 23 23 22 22 21 20 21 22 23 24 25 25 26 26 26 27 27 28 28 29 29 30 30 31 31 31 32 31
21 21 21 21 20 20 20 20 21 22 23 23 23 23 23 23 23 23 23 22 21 22 22 23 24 24 25 26 26 27 27 28 28 29 30 30 31 31 32 32 31 31 31
21 20 19 19 19 19 20 20 21 22 23 23 22 22 22 23 22 22 22 21 22 23 23 24 24 24 25 27 28 28 28 28 29 30 31 31 31 31 31 31 31 31 31
20 19 18 18 18 19 20 20 21 22 22 23 22 22 22 22 22 22 22 22 23 24 24 24 25 25 25 27 27 27 27 28 29 29 30 30 30 30 30 30 30 31 31
19 18 17 18 19 20 21 21 22 22 22 22 22 22 23 23 23 23 23 23 23 23 24 24 25 24 25 25 26 26 26 27 27 28 28 28 28 28 29 29 30 30 30
18 18 18 18 20 21 21 21 21 21 21 21 21 22 23 23 23 23 23 24 24 24 24 24 24 24 24 24 24 25 25 26 27 27 27 27 27 27 28 29 29 29 30
18 18 19 19 20 21 20 20 21 21 21 22 22 23 23 23 23 23 24 25 25 24 24 23 24 24 24 25 24 25 25 25 25 26 27 27 27 28 28 28 28 29 29
18 19 19 20 20 20 20 21 22 22 22 22 22 23 23 23 24 24 25 25 25 25 24 24 24 24 24 24 23 24 24 24 25 26 27 27 28 28 28 28 29 29 29
19 20 21 21 21 20 21 21 22 22 23 23 23 23 23 24 24 25 25 25 25 25 25 24 24 24 24 23 23 24 25 25 25 25 26 27 28 28 29 29 29 29 29
21 22 21 21 21 21 21 22 22 22 23 24 24 24 24 24 25 26 26 25 25 25 25 24 24 24 23 23 23 24 25 25 25 25 25 26 26 27 27 27 27 28 27
23 23 22 22 22 22 22 23 23 24 24 25 25 24 25 25 26 26 26 26 25 25 25 25 24 24 23 23 23 24 24 23 23 23 23 24 25 25 26 26 26 27 27
23 23 23 23 23 23 23 23 23 23 24 24 24 25 26 26 26 26 26 25 24 24 24 25 24 24 24 24 24 23 23 22 22 22 22 23 24 24 24 25 25 25 25
24 24 24 24 23 22 22 22 23 23 24 25 26 26 26 26 26 26 25 25 24 23 23 23 24 23 24 24 24 23 22 22 22 22 23 23 23 23 23 23 23 24 24
24 24 23 23 22 22 22 23 23 24 25 26 26 26 27 26 26 26 25 24 24 23 23 23 23 23 23 23 23 23 23 22 22 22 23 23 23 22 22 22 23 23 24
24 23 23 23 23 23 23 24 25 25 25 26 27 27 27 26 26 26 26 25 24 23 23 23 23 23 23 22 22 23 23 22 21 21 22 23 23 24 23 23 22 23 23
24 24 24 24 24 24 25 25 26 25 26 26 27 27 27 27 26 26 25 24 23 23 22 22 22 22 22 22 22 21 21 21 21 21 21 21 22 22 22 22 22 22 22
24 24 24 25 25 25 25 25 26 26 26 27 27 26 26 27 26 25 24 23 23 22 21 21 21 21 21 21 21 20 20 20 21 21 21 21 21 21 22 21 21 21 21
25 25 25 25 25 26 26 26 26 27 27 28 27 27 27 27 26 25 25 24 24 22 20 20 20 20 21 21 20 20 21 21 21 21 21 21 21 21 21 21 20 19 19

GEFSMW_500_meanwind_252.txt.gz
Wind_Speed
21 20 19 19 19 19 19 20 20 20 19 18 19 20 20 20 20 20 19 19 19 20 21 21 21 21 20 20 21 22 22 22 23 23 22 22 21 22 23 24 23 23 23
21 20 19 19 19 19 20 20 21 21 20 19 20 20 20 20 20 20 20 20 21 22 23 23 23 23 22 22 22 22 22 23 24 24 24 23 22 23 23 25 25 25 24
20 19 19 19 20 20 21 21 21 21 20 20 21 21 21 21 21 20 21 22 22 23 23 24 24 24 23 22 22 22 22 22 23 24 24 24 24 24 25 25 26 26 26
20 19 19 20 21 21 21 20 21 22 21 21 22 22 22 22 22 22 23 23 23 24 24 25 24 24 23 23 23 22 23 23 23 24 24 25 25 25 25 25 26 27 26
21 21 21 20 21 21 21 21 22 22 21 22 23 23 23 22 23 23 23 23 23 24 25 25 24 24 24 24 24 23 23 24 24 25 25 26 26 26 26 26 26 27 27
21 22 22 22 21 22 22 22 22 22 22 22 23 24 23 23 23 23 23 23 24 24 25 25 24 24 24 24 25 25 25 26 26 26 26 26 26 27 27 27 28 28 28
22 22 23 23 22 22 23 23 23 23 23 23 23 23 23 22 22 22 22 23 24 25 25 25 25 25 24 24 25 26 27 27 27 28 28 28 28 27 28 28 28 28 29
22 23 23 23 23 23 24 23 23 23 24 23 23 23 22 22 22 23 24 24 24 25 25 25 25 25 25 25 25 26 27 27 28 29 29 29 29 29 29 29 29 29 29
22 23 23 24 23 24 24 23 23 23 24 23 23 22 22 23 23 24 24 24 24 25 25 24 23 24 25 25 25 26 28 28 28 29 29 29 30 30 30 30 30 29 28
23 23 23 24 23 23 24 23 23 24 23 23 23 22 23 24 24 24 24 24 24 24 24 24 25 25 25 26 26 27 27 27 27 28 29 29 30 30 30 30 30 29 28
23 24 24 23 23 23 23 24 24 23 23 22 22 22 23 23 24 24 24 25 25 24 24 25 25 25 26 26 26 26 26 26 27 27 28 28 29 29 30 30 30 29 29
24 24 24 23 23 23 23 23 23 22 22 22 22 22 23 24 25 25 25 25 25 25 25 25 25 26 26 26 25 25 26 26 27 27 27 27 27 28 28 29 28 28 28
24 24 23 23 23 22 22 22 22 21 22 22 23 23 24 24 25 25 25 25 25 25 25 26 26 25 25 25 24 25 24 25 25 25 25 25 26 27 27 28 28 28 28
24 23 22 22 23 22 22 22 22 22 22 22 23 23 24 24 24 24 24 24 25 25 26 27 26 25 25 25 25 25 24 24 24 24 24 25 26 26 27 28 28 28 28
24 23 22 23 23 23 22 22 22 22 22 22 23 24 24 24 24 24 25 25 26 26 26 27 27 26 25 25 25 25 25 25 25 25 25 25 25 26 27 27 27 27 28
24 24 23 23 23 23 22 22 22 22 23 23 23 24 24 24 25 25 25 26 26 26 26 27 26 26 26 25 26 26 26 26 26 25 25 25 26 27 27 27 27 28 29
23 23 23 23 23 23 22 22 23 23 23 24 24 25 25 25 26 25 26 26 26 26 26 26 27 26 26 26 26 26 26 26 25 25 25 25 25 26 26 27 27 28 28
23 24 24 23 23 23 23 23 23 24 24 24 24 24 25 26 26 26 26 26 26 27 27 27 26 26 26 26 26 26 26 26 25 25 25 25 25 26 26 25 25 26 26
24 24 25 24 24 23 23 23 24 23 24 24 25 25 26 27 26 26 26 26 27 27 27 27 26 26 26 26 26 25 25 25 25 25 25 25 25 25 26 26 25 25 25
25 25 25 24 23 23 23 24 23 23 24 25 25 26 27 27 27 27 27 27 27 27 27 26 27 26 26 26 24 24 24 25 25 25 26 26 26 26 26 25 25 25 24
25 25 25 24 23 23 23 23 23 23 24 25 26 27 28 28 27 27 28 28 27 27 27 26 26 26 26 25 24 24 24 24 24 25 25 25 25 25 25 24 25 25 25
25 24 24 24 23 24 24 24 23 24 25 26 27 28 28 28 28 28 28 28 27 27 27 27 27 26 25 25 25 25 25 24 24 24 25 24 24 25 25 25 25 25 26
24 25 25 25 24 24 24 24 24 25 25 27 27 27 27 27 28 28 29 29 28 28 27 27 26 26 25 25 25 25 25 24 24 25 25 24 23 24 24 25 25 26 26
24 25 25 25 24 23 23 24 24 25 25 26 26 26 26 27 28 28 29 28 28 28 27 26 26 26 26 26 25 25 25 25 24 24 23 23 23 24 24 24 24 24 25
25 25 26 25 24 23 24 25 25 25 26 26 26 27 27 28 28 29 29 28 28 28 27 27 27 26 26 26 26 25 25 25 24 23 23 23 23 23 24 24 24 25 25
26 26 26 25 25 25 25 25 25 26 26 26 26 27 28 29 30 30 30 28 28 27 27 27 27 27 27 26 25 24 24 24 24 24 24 23 23 23 24 24 24 24 24

GEFSMW_500_meanwind_258.txt.gz
Wind_Speed
17 16 16 16 17 16 17 16 16 16 16 17 17 17 17 15 15 15 16 16 16 17 17 18 18 19 19 19 19 19 19 19 20 20 20 20 20 20 20 21 21 22 23
17 16 17 17 16 17 17 16 16 16 17 17 17 17 17 16 16 16 16 17 17 18 18 18 19 19 20 20 19 20 20 20 21 21 22 22 21 21 22 23 23 23 23
19 18 17 16 16 17 16 16 17 17 17 17 17 17 17 16 17 17 17 18 18 18 19 19 20 19 19 20 19 20 20 20 20 21 22 22 21 21 23 24 24 23 24
19 18 17 16 16 17 18 18 18 18 18 18 18 18 17 17 17 18 18 19 19 18 19 19 19 19 19 18 19 19 20 20 20 21 22 22 22 22 23 23 24 24 25
18 18 18 17 16 17 19 19 18 18 19 19 19 19 18 18 18 17 17 18 18 18 19 20 20 20 20 20 19 20 20 21 22 22 22 22 22 22 23 24 25 26 27
17 17 18 18 17 18 18 19 19 19 20 20 20 20 19 19 18 18 18 18 19 19 19 20 21 22 21 21 21 22 22 22 23 23 23 23 24 24 24 24 25 26 27
18 17 19 19 19 19 19 19 20 20 21 21 21 21 20 20 19 19 19 19 19 20 20 21 21 22 22 21 22 23 23 24 25 25 23 24 24 25 26 26 26 26 26
18 18 19 19 20 20 19 20 21 21 22 22 21 21 21 21 20 21 21 20 20 21 21 21 21 21 22 22 23 23 23 24 24 25 24 25 25 26 26 27 27 26 26
19 18 18 18 19 20 20 22 21 22 22 22 22 22 21 21 21 22 21 21 22 22 23 23 23 22 22 23 23 23 24 24 24 25 25 26 27 27 27 27 26 27 27
19 19 19 20 19 20 20 22 22 23 22 23 23 23 22 22 22 22 21 22 22 23 23 23 24 23 24 24 23 24 25 25 26 26 26 27 27 27 26 27 27 28 28
19 19 20 22 21 21 22 23 23 22 22 22 23 22 22 23 23 22 22 22 22 23 23 24 24 24 24 25 24 24 25 25 26 27 27 27 27 26 26 26 26 26 27
20 20 21 23 23 23 23 24 23 21 21 22 22 22 23 23 23 22 23 23 22 22 23 24 24 24 24 24 24 25 26 26 26 26 26 26 26 26 26 26 26 27 28
20 21 22 24 23 23 24 24 23 21 22 22 22 22 23 23 23 23 23 23 23 23 23 24 24 24 24 24 25 26 26 26 26 26 25 26 27 27 27 27 28 28 28
21 22 22 23 24 25 24 24 24 22 23 23 23 23 23 23 22 22 23 23 24 23 24 24 24 24 25 25 25 26 26 27 27 27 26 26 27 26 27 28 28 28 28
23 22 23 24 24 25 24 23 23 23 23 23 22 22 22 22 22 22 22 22 23 23 24 24 24 25 25 26 25 25 26 27 27 27 27 27 27 27 27 28 28 28 28
23 23 23 22 23 23 23 22 22 22 22 23 23 22 21 22 22 22 23 23 24 24 24 25 25 26 26 26 26 26 26 27 27 27 27 28 29 29 28 28 28 28 27
24 23 22 23 23 22 21 21 21 22 22 22 22 22 23 23 23 23 24 25 25 25 25 25 26 26 26 26 26 26 26 26 26 26 27 28 29 29 29 29 28 28 28
23 22 23 24 23 22 22 23 23 22 23 22 23 23 24 24 24 25 25 25 26 25 26 26 26 26 26 26 25 26 26 26 25 26 27 27 27 28 28 28 28 28 28
23 23 23 23 23 23 23 23 23 22 22 22 23 23 24 25 24 24 25 25 26 26 27 28 27 27 26 26 26 26 26 26 26 26 26 26 26 26 27 28 28 28 28
24 24 23 23 23 23 23 23 22 22 22 22 23 24 24 24 24 25 26 26 27 27 27 27 27 27 26 26 26 26 27 27 27 26 25 26 26 25 26 26 27 27 28
24 24 24 23 24 24 24 24 24 24 24 24 24 24 24 24 25 26 26 27 27 27 27 26 26 27 27 26 26 27 27 27 26 25 25 25 26 26 26 26 26 26 27
25 25 24 24 24 24 24 24 25 24 25 25 25 24 24 24 25 26 27 27 27 27 27 26 26 26 26 26 26 26 27 27 26 25 25 25 25 25 25 25 25 26 27
26 26 25 25 25 25 25 25 25 25 25 25 25 25 24 25 25 26 27 27 26 26 26 26 26 26 26 26 26 26 26 27 26 25 24 23 23 24 24 24 24 25 26
28 27 26 26 26 26 25 26 25 25 25 25 26 25 25 26 26 26 27 26 26 25 25 25 25 25 25 25 26 26 26 26 26 25 24 23 23 23 23 23 24 25 26
28 27 26 27 27 27 26 26 26 26 26 26 26 26 26 26 26 26 26 26 26 26 25 25 25 25 25 26 26 25 25 25 25 24 23 23 23 23 24 24 24 25 26
27 27 27 27 26 27 26 26 26 26 25 25 26 26 26 26 26 26 26 26 26 26 25 25 25 26 26 26 25 25 24 24 24 23 23 23 24 24 25 25 25 26 27

GEFSMW_500_meanwind_264.txt.gz
Wind_Speed
16 17 17 17 17 17 17 17 18 17 16 16 16 15 15 16 16 16 16 16 16 17 17 17 18 19 19 19 19 19 18 19 19 20 20 20 21 20 20 21 22 23 23
17 17 17 18 18 18 18 19 18 17 16 16 15 15 15 16 16 16 16 17 18 18 18 19 19 19 20 20 20 20 20 20 20 21 21 21 21 21 22 22 22 24 24
17 17 17 18 18 18 18 18 19 18 17 16 16 16 16 16 16 17 17 18 19 19 19 19 19 19 20 20 21 21 21 21 21 21 21 21 21 23 23 24 23 24 23
18 17 17 18 18 18 19 19 19 19 18 17 17 17 17 17 18 18 17 17 18 18 18 18 18 19 20 21 21 21 22 21 21 21 21 21 22 23 24 25 25 24 24
19 18 18 18 18 19 19 19 18 18 17 18 17 17 17 17 17 17 17 17 18 18 18 18 18 19 21 21 21 22 23 23 23 23 22 22 22 23 24 25 26 26 26
20 19 20 20 19 19 19 19 18 18 19 19 17 17 17 18 18 18 19 19 19 19 18 18 19 20 21 21 21 22 23 24 24 25 24 24 24 24 25 25 25 25 25
20 20 20 20 20 20 20 19 19 19 19 18 18 17 18 18 19 19 20 21 20 20 20 20 20 21 21 22 22 23 24 24 24 25 25 25 25 26 26 25 25 24 24
20 20 20 20 20 20 21 21 19 19 18 18 18 18 19 19 20 20 21 21 22 21 20 21 21 22 23 23 23 23 24 24 25 26 26 26 26 26 26 26 25 25 24
21 21 21 21 20 20 21 21 20 19 19 19 19 20 20 20 21 21 21 21 22 23 22 23 23 24 24 24 24 24 24 25 25 25 25 26 26 27 27 27 27 26 26
22 22 21 20 21 21 21 21 20 19 20 20 20 20 21 21 21 21 21 22 23 23 24 24 25 25 26 26 26 25 25 26 26 26 26 27 28 28 29 29 28 27 28
22 22 22 21 21 21 22 21 20 20 20 20 21 21 21 22 22 22 23 23 23 24 25 26 26 27 27 27 27 26 27 27 28 28 27 28 29 30 29 29 28 28 29
22 22 21 21 21 22 21 21 21 21 21 21 22 22 22 23 23 23 24 24 25 25 26 27 27 27 28 28 28 28 27 27 27 27 28 28 28 28 29 29 30 30 30
22 21 21 22 22 22 22 22 22 21 21 22 22 23 24 24 24 24 25 25 26 26 27 28 27 27 27 28 28 28 28 27 27 27 28 28 29 28 29 30 31 31 31
21 21 21 22 22 22 22 22 22 21 22 22 23 24 24 24 25 25 25 26 26 26 26 27 27 27 27 27 27 28 28 27 28 28 29 29 29 29 30 30 31 31 32
21 21 22 22 22 22 23 22 22 23 22 23 24 24 25 25 25 25 25 26 26 26 26 27 27 26 26 27 26 26 27 27 28 28 29 29 29 29 29 29 30 30 31
22 22 23 23 23 23 23 22 23 23 23 23 24 23 24 25 25 25 25 26 27 27 27 26 26 26 26 26 26 27 27 27 27 28 28 27 27 27 28 29 29 29 30
22 22 23 24 24 23 23 23 23 24 24 24 23 23 23 23 24 24 25 25 26 26 25 25 25 25 26 26 26 26 27 26 26 26 27 27 27 27 28 28 28 29 29
24 23 23 24 24 24 24 24 24 24 24 24 24 24 24 24 25 25 25 26 25 25 25 24 24 24 25 25 26 25 26 26 26 26 26 26 26 26 27 27 28 29 29
24 24 24 24 24 25 25 25 25 25 25 25 25 25 25 25 25 25 26 25 25 24 24 24 24 24 25 26 26 26 26 26 26 27 26 26 26 26 26 27 28 29 30
24 23 23 23 23 24 24 25 25 25 26 26 26 26 26 26 25 26 25 25 25 25 24 24 24 25 26 27 27 26 26 27 27 27 27 27 26 26 27 27 28 28 29
23 24 23 24 24 24 24 24 25 25 26 26 26 26 26 25 26 26 26 26 26 25 25 25 25 26 26 27 26 27 27 27 27 27 27 28 28 28 28 28 27 27 27
24 23 23 23 23 23 24 25 25 25 25 26 26 25 26 26 26 26 26 26 26 26 26 27 27 27 27 26 26 27 27 26 26 27 27 28 28 28 28 28 27 27 27
23 23 23 23 23 24 25 25 25 25 25 25 25 25 25 25 25 25 26 27 27 27 27 27 27 27 26 26 26 26 26 26 26 26 26 26 26 26 26 26 27 27 28
25 25 25 25 26 26 26 26 25 25 24 24 24 25 24 24 24 25 27 28 28 28 27 26 26 26 26 26 26 27 27 26 26 26 26 25 25 25 26 26 27 27 27
26 27 27 26 26 26 26 25 25 25 24 24 24 25 24 25 25 26 27 27 28 27 26 25 25 25 26 27 27 27 27 27 27 26 25 25 25 26 27 27 26 27 27
27 27 27 27 27 27 26 25 26 26 26 26 26 26 26 26 26 26 26 26 26 25 24 24 24 25 26 27 27 27 27 27 26 26 25 25 25 26 26 26 26 26 27

GEFSMW_500_meanwind_270.txt.gz
Wind_Speed
19 19 19 19 18 18 17 17 17 17 16 16 16 15 15 15 16 16 16 16 16 15 15 15 15 15 16 16 16 17 17 18 19 19 19 20 20 21 21 21 21 21 21
20 20 19 19 19 18 18 18 17 17 17 16 16 16 16 16 16 16 16 16 15 14 14 15 15 16 17 17 18 18 19 19 20 20 20 21 22 22 22 22 22 23 23
20 19 19 18 18 18 18 18 18 17 17 17 17 17 16 16 16 17 17 17 16 15 16 16 16 16 17 17 17 18 20 20 21 21 21 21 22 23 22 22 23 24 24
20 19 19 18 18 18 18 19 19 18 18 18 18 17 17 17 17 17 17 17 17 16 16 17 18 18 18 17 17 17 18 20 21 22 22 22 23 23 23 24 24 25 25
20 20 19 19 18 18 18 18 18 19 19 19 18 18 18 18 18 18 18 19 19 18 17 18 19 18 18 18 18 17 17 18 20 21 22 23 23 24 24 24 25 26 26
20 20 20 20 20 19 19 19 19 19 19 19 19 18 18 18 18 18 19 19 20 19 19 19 20 20 19 18 17 17 18 18 19 20 21 23 24 24 25 26 27 26 27
21 22 22 21 20 20 20 20 20 20 19 19 19 19 19 19 20 20 20 20 20 21 21 21 21 21 20 19 18 19 19 19 20 21 22 23 24 25 26 26 26 27 28
21 21 21 21 21 21 21 21 21 20 20 20 20 20 20 20 20 21 21 21 21 21 22 21 21 21 20 20 20 21 21 21 22 22 23 23 24 25 26 27 28 29 29
21 21 21 20 21 21 21 21 21 21 22 22 22 21 21 21 22 22 22 23 22 22 22 22 22 21 21 21 22 22 23 24 24 24 25 25 25 26 27 29 29 28 29
22 21 21 21 21 21 21 21 21 22 23 23 22 23 23 23 23 23 23 23 23 23 23 23 23 22 22 23 23 24 25 26 26 26 27 27 27 28 28 29 29 29 29
22 21 21 21 22 22 21 21 21 22 23 23 23 23 23 23 24 24 24 23 23 24 25 25 24 24 25 24 25 25 26 27 27 28 27 27 28 29 29 29 29 29 29
22 22 22 22 22 22 22 21 22 23 23 24 24 23 24 24 25 24 24 23 24 24 25 25 25 25 26 26 26 26 27 27 27 27 27 27 28 28 28 28 29 29 30
21 22 23 23 22 22 22 22 22 23 24 24 24 24 24 24 24 24 24 24 25 25 26 26 26 26 26 27 27 27 27 27 27 27 27 27 27 28 28 28 29 29 29
21 22 22 22 22 22 22 22 23 23 24 23 23 23 23 23 24 24 25 25 25 25 26 26 26 26 26 26 27 26 26 27 27 26 26 26 27 27 27 28 29 29 30
21 21 22 22 22 22 22 22 23 24 24 23 24 24 24 24 25 25 25 25 25 25 26 26 26 26 25 25 26 26 27 26 25 24 24 25 26 26 27 27 28 29 30
23 22 22 21 22 22 23 23 23 24 24 25 24 24 24 25 26 26 25 26 25 25 26 26 25 24 25 25 25 25 26 25 24 24 25 26 26 26 27 28 28 29 30
23 23 23 22 22 22 23 23 23 23 24 24 24 25 25 26 26 26 26 26 26 26 27 27 26 25 25 25 24 24 24 24 24 25 25 25 26 26 27 27 28 28 29
23 23 22 22 22 23 23 23 23 23 23 23 24 24 25 26 27 27 26 27 27 27 27 27 25 24 24 24 24 25 25 25 25 26 26 26 26 26 27 27 27 28 28
23 24 23 22 22 23 23 23 23 23 23 23 23 24 25 25 26 26 26 26 26 26 26 25 24 24 24 24 25 25 25 25 25 24 25 25 26 27 27 27 27 28 28
23 23 22 22 22 23 23 23 23 23 23 23 24 24 25 26 26 25 25 24 24 24 25 25 25 25 25 26 26 26 26 25 24 24 24 25 25 26 26 27 27 27 27
24 22 22 23 23 23 23 23 23 22 23 23 24 25 26 26 26 26 25 25 25 26 26 26 26 26 27 27 27 26 25 24 24 24 25 25 26 27 27 27 27 27 27
23 22 22 23 22 23 23 23 23 23 24 24 25 26 26 26 26 26 26 26 26 27 27 27 28 28 28 27 27 25 24 24 24 25 26 26 26 26 27 27 27 27 27
24 23 23 22 22 22 23 23 23 24 25 26 26 27 26 26 26 26 26 26 27 27 27 27 27 27 27 26 25 25 25 25 25 26 26 26 26 26 26 27 27 28 28
23 23 23 23 23 24 24 25 25 25 25 26 26 26 27 26 26 26 27 27 26 26 27 27 26 26 26 25 26 25 25 26 26 26 26 26 26 26 26 27 27 28 28
25 24 24 24 25 25 25 25 25 25 25 25 25 26 26 26 26 26 26 25 25 26 27 26 25 25 24 24 24 25 26 26 26 26 26 26 26 27 27 27 28 28 28
25 25 25 25 25 24 25 25 25 25 25 25 25 24 25 25 25 25 24 24 24 25 25 25 25 25 24 24 25 25 26 26 26 26 26 27 27 28 28 29 29 28 29

GEFSMW_500_meanwind_276.txt.gz
Wind_Speed
19 20 21 21 21 20 19 19 19 19 18 18 18 18 18 17 17 17 17 17 17 16 16 15 16 16 15 15 15 16 16 16 17 18 18 18 19 20 20 20 21 21 21
20 21 21 21 21 21 20 20 20 20 19 18 19 19 19 18 18 18 18 18 18 17 17 17 17 16 16 16 16 17 17 16 17 18 19 20 20 20 21 21 22 23 23
22 22 21 20 21 21 21 21 21 21 21 20 20 20 20 19 19 19 19 19 19 19 19 19 19 18 18 17 17 17 17 17 18 18 19 20 21 22 22 23 23 24 24
22 23 21 21 22 21 21 21 21 21 21 21 21 21 20 20 20 20 21 21 21 21 21 21 20 20 20 19 19 19 19 18 19 19 20 20 21 22 23 24 24 25 25
23 24 23 22 22 22 21 21 21 21 22 21 21 20 20 20 20 21 21 21 22 22 22 22 22 21 21 21 21 20 19 20 20 20 20 21 22 22 23 23 23 24 25
23 23 24 23 22 22 23 22 21 21 21 21 21 20 20 20 20 21 22 22 23 23 22 22 22 22 23 23 22 22 21 21 21 21 20 21 22 22 23 23 23 24 25
23 23 23 23 23 23 23 22 22 21 21 21 21 21 21 21 21 21 22 22 23 23 23 22 22 23 24 24 23 23 23 23 22 22 22 21 22 23 23 24 24 25 26
24 24 24 24 23 23 23 22 21 21 21 21 21 21 21 21 22 22 22 23 23 23 23 23 24 24 24 25 25 24 24 24 23 23 23 23 23 24 25 25 26 27 27
25 25 24 24 23 23 22 21 20 21 21 21 21 22 22 22 22 22 23 23 23 24 24 24 24 25 25 25 25 25 25 24 24 25 25 25 25 26 26 27 27 28 28
24 24 23 23 23 23 22 21 21 20 21 20 21 22 22 23 23 23 23 23 23 24 24 25 26 25 25 25 25 25 25 25 26 26 27 27 27 28 28 28 28 28 28
24 24 23 23 23 22 22 21 21 21 21 22 22 22 23 22 22 23 23 23 24 24 24 25 26 25 24 25 25 26 26 26 26 26 27 27 28 28 29 29 30 29 29
25 24 23 24 23 23 22 21 22 22 22 22 23 23 23 22 22 22 23 22 23 23 24 23 24 25 24 25 25 26 26 26 27 28 28 28 28 29 29 29 29 30 30
25 25 24 23 24 23 23 23 23 23 23 23 22 22 22 23 23 23 23 23 23 23 23 23 24 23 24 24 26 26 26 26 26 27 28 27 28 29 29 29 29 29 30
27 26 25 24 24 24 24 24 24 24 24 25 24 23 23 23 23 23 23 24 24 23 23 23 23 24 25 24 24 24 25 25 26 26 27 27 29 29 30 30 29 29 30
28 27 26 25 24 24 24 24 25 25 25 25 25 24 23 24 24 24 24 24 24 24 23 24 24 24 25 24 24 25 26 25 26 27 28 29 30 30 30 30 30 29 29
28 27 26 25 25 24 24 25 25 25 26 25 25 25 25 24 24 24 24 24 24 24 25 25 25 25 25 25 25 26 27 27 27 29 30 30 31 31 30 30 29 28 28
27 26 26 26 26 25 24 25 25 25 25 25 25 25 24 24 24 24 24 24 24 24 24 24 25 25 25 26 27 28 28 28 29 30 30 30 30 30 30 29 28 28 28
26 26 26 25 25 25 25 25 25 25 25 25 25 25 25 24 24 24 24 24 24 24 25 25 26 26 27 28 29 29 30 30 30 30 30 29 28 29 29 28 28 29 29
25 25 25 24 25 26 25 25 24 24 24 25 25 25 25 25 25 25 25 25 25 25 26 26 27 27 28 29 30 30 31 30 29 29 28 28 28 28 29 28 28 28 28
25 25 24 24 25 25 25 24 24 23 23 23 24 25 25 25 24 25 25 25 26 27 27 28 28 28 29 30 30 30 30 29 29 29 29 29 29 29 29 29 29 29 29
25 25 24 24 24 23 23 24 24 23 24 24 24 24 25 25 25 25 25 26 26 27 28 28 29 29 29 29 30 30 31 30 30 31 31 30 30 30 30 29 29 29 29
26 25 24 24 24 23 23 23 24 24 24 25 25 25 25 26 26 26 26 27 27 27 28 29 29 29 29 30 30 30 30 31 30 30 30 30 30 29 29 28 28 29 29
25 25 24 24 24 24 23 23 24 25 25 25 25 26 26 27 27 27 27 27 27 28 28 29 29 29 29 30 29 29 30 30 30 30 30 30 30 29 28 28 28 28 28
26 25 24 25 25 25 24 24 24 25 26 26 26 26 27 27 27 27 28 27 27 28 28 28 28 28 28 29 29 29 29 30 30 30 30 29 29 28 28 28 29 29 28
26 26 26 25 25 25 25 25 26 26 26 25 25 26 26 27 27 28 28 28 28 28 28 28 28 28 28 27 28 28 28 29 29 28 27 27 27 27 28 28 28 28 28
24 25 25 25 24 25 25 25 25 25 24 25 25 25 25 26 26 26 27 27 28 28 27 27 27 27 27 28 28 27 27 27 27 26 26 27 27 27 27 28 28 28 28

GEFSMW_500_meanwind_282.txt.gz
Wind_Speed
15 16 16 17 18 18 18 17 17 17 17 16 16 15 14 14 14 14 15 15 14 15 15 15 15 15 15 15 15 15 16 15 15 15 15 16 16 16 15 16 16 17 17
15 16 17 18 18 19 19 19 18 18 18 17 18 17 17 16 15 16 16 16 16 16 16 16 17 17 17 17 16 16 16 16 16 15 15 15 16 16 16 16 17 17 17
16 17 17 18 19 20 19 19 19 19 20 19 18 18 17 18 18 17 18 18 18 18 17 17 18 18 19 18 18 17 17 17 16 16 15 15 15 16 16 17 17 18 18
16 17 18 18 19 20 19 19 20 21 21 21 19 19 19 19 18 18 18 18 19 18 18 18 18 19 19 19 19 19 18 17 17 17 16 17 17 16 16 17 17 18 19
17 18 18 19 19 20 20 20 20 21 21 21 20 19 19 19 18 19 18 18 18 18 18 19 19 19 19 20 20 20 20 20 20 19 19 19 19 19 18 18 18 18 19
18 18 19 20 21 21 21 20 19 20 20 20 20 18 19 19 19 18 18 18 17 18 19 19 19 19 20 20 20 21 21 21 21 21 21 21 21 21 21 20 20 20 20
21 20 21 21 21 21 21 19 19 19 20 20 19 18 18 19 18 18 18 18 18 19 19 20 20 21 21 21 20 21 22 22 22 23 23 24 23 23 23 22 22 22 22
21 21 21 21 21 21 21 20 19 20 20 19 19 19 19 19 19 19 19 19 19 19 20 20 20 20 21 21 21 22 22 22 22 23 24 25 24 24 24 24 24 23 23
20 21 22 22 21 21 21 21 20 20 20 20 19 19 19 18 18 18 19 19 19 19 19 20 20 20 20 20 21 22 22 22 23 24 25 25 25 25 24 24 25 25 26
23 23 24 23 22 22 22 22 21 20 21 20 19 18 18 18 18 18 18 19 19 19 20 20 20 20 21 21 21 21 22 22 23 23 24 24 24 24 24 25 26 26 26
23 23 23 23 23 23 22 21 20 19 19 18 17 18 18 17 18 17 18 18 19 20 20 20 20 20 20 21 21 21 21 22 22 22 22 22 23 24 24 24 25 26 27
23 23 23 24 23 23 22 21 20 18 18 18 17 17 17 18 18 18 17 18 18 19 20 20 21 21 21 21 20 20 20 20 21 22 22 22 23 24 24 25 26 27 27
23 24 25 26 25 23 22 21 20 19 19 19 18 17 18 18 18 19 18 18 18 18 19 20 20 20 20 20 21 21 20 21 21 22 22 23 23 24 25 26 26 26 27
25 25 25 25 25 24 22 20 20 20 20 20 19 19 18 18 19 20 20 19 19 20 20 20 20 20 20 21 21 21 21 21 22 23 23 23 23 24 24 25 25 26 26
26 26 26 26 25 24 22 21 20 20 21 21 21 20 20 19 20 20 20 20 20 21 20 20 21 21 22 22 22 22 22 23 23 23 23 23 23 24 24 24 25 25 26
27 27 25 25 25 24 24 23 21 21 21 21 21 21 21 21 21 21 21 21 21 21 22 22 23 23 23 23 23 24 24 24 24 24 24 24 24 24 24 25 25 26 26
26 26 26 25 25 24 24 25 23 21 21 22 22 22 22 22 22 21 21 21 22 22 22 22 23 24 24 24 24 24 24 24 24 24 25 24 24 25 25 25 26 26 26
25 26 26 25 25 24 23 22 22 22 22 22 22 22 22 22 22 22 22 21 22 23 23 23 24 24 24 25 24 24 24 25 26 26 25 25 26 26 26 27 27 27 26
27 27 27 26 25 25 23 23 24 23 23 22 22 22 22 22 22 23 23 22 23 24 24 24 25 25 25 25 26 26 26 26 26 26 26 26 27 27 27 27 27 27 26
27 27 26 25 25 25 25 24 24 24 23 23 23 23 23 23 23 23 24 24 24 24 25 25 26 26 26 27 27 27 27 27 27 27 27 27 27 27 28 27 27 27 27
26 26 26 24 24 24 24 24 23 23 23 23 23 23 23 24 24 24 24 25 25 25 26 26 27 27 27 28 27 27 26 27 27 28 28 28 28 27 28 28 27 27 28
26 26 25 24 23 23 22 23 23 23 23 23 24 24 23 23 23 24 24 25 26 26 26 27 28 27 27 28 27 27 27 28 28 28 29 29 29 28 28 28 29 29 28
25 26 25 25 25 24 24 23 24 24 24 23 23 23 22 21 22 23 24 25 26 26 26 27 28 28 28 28 28 27 27 28 28 28 28 29 29 29 28 29 29 29 28
24 25 25 25 25 24 23 23 23 23 23 23 23 22 22 22 22 23 24 24 25 26 27 27 28 28 29 28 28 29 29 29 28 28 28 28 29 29 29 30 29 29 29
23 23 24 23 23 23 22 22 22 22 22 23 23 22 22 22 23 23 23 24 24 25 26 26 27 28 28 28 29 29 29 29 29 29 28 28 28 29 29 30 29 29 29
23 22 22 22 23 23 22 22 22 23 23 23 23 22 23 23 24 24 24 24 24 25 26 26 26 26 27 27 28 29 29 29 28 27 27 28 29 29 29 28 28 28 28

GEFSMW_500_meanwind_288.txt.gz
Wind_Speed
13 13 14 14 14 14 14 14 15 16 15 15 15 15 15 15 15 16 16 16 16 16 15 15 15 15 15 15 15 15 14 15 16 15 14 15 15 15 16 16 17 17 17
14 14 15 15 15 15 15 15 16 16 16 16 16 16 16 16 16 16 16 18 17 17 16 16 16 16 17 17 17 17 16 16 16 15 15 15 15 15 16 17 17 16 17
16 16 17 16 15 15 16 16 16 17 17 17 16 16 16 16 17 17 17 16 17 17 17 16 16 16 17 17 17 17 17 17 17 17 17 16 16 17 17 17 17 17 18
19 18 17 17 17 17 16 17 17 16 16 17 17 17 17 16 17 17 17 17 17 17 17 17 17 17 18 18 18 18 18 19 18 19 19 18 18 18 18 18 18 18 19
21 20 19 18 17 17 17 17 17 16 16 17 17 17 17 17 17 17 17 17 17 17 17 18 18 18 18 19 19 19 20 20 20 20 20 20 21 20 19 19 19 20 20
21 21 20 19 17 17 17 17 17 18 17 17 17 17 17 17 17 16 16 16 17 17 18 18 18 19 19 19 20 20 21 21 21 21 22 22 22 22 22 21 21 21 22
21 20 20 19 18 19 19 19 18 18 17 17 17 17 18 18 18 17 17 16 17 18 18 18 19 19 20 21 21 21 21 21 21 21 22 22 22 23 23 23 23 23 23
21 21 22 20 20 20 20 20 18 18 18 18 18 18 19 19 18 19 19 18 18 19 19 19 19 20 21 21 21 21 21 21 21 21 21 22 23 23 24 24 24 23 24
23 23 22 21 20 20 20 20 19 19 18 18 18 18 19 19 19 19 19 18 18 18 19 20 21 20 21 21 21 21 21 21 21 21 22 22 23 24 24 24 24 24 24
24 23 23 22 21 20 20 20 19 19 19 18 18 18 17 17 18 18 18 17 18 18 20 21 21 21 21 21 21 21 20 21 21 22 23 23 23 24 24 24 24 24 25
25 24 24 23 22 21 21 22 21 21 20 19 19 18 18 18 19 19 18 18 18 19 20 20 21 21 21 21 21 21 20 21 21 22 22 23 23 24 24 25 25 25 25
26 25 24 23 22 22 23 23 23 23 22 21 20 19 19 19 19 19 18 18 19 19 19 20 20 20 21 20 21 21 21 21 22 22 22 22 23 24 24 25 25 25 25
26 25 25 25 24 23 24 24 24 24 23 22 22 21 21 20 20 19 19 19 19 19 19 19 19 19 20 21 21 21 22 22 22 22 22 22 24 24 24 25 25 25 26
26 26 26 25 25 25 26 25 25 24 23 24 23 22 22 22 21 20 20 21 21 21 20 20 20 20 20 21 21 22 22 22 22 22 23 24 24 25 25 26 26 26 26
26 26 25 25 26 26 27 26 24 24 24 23 24 24 24 23 22 23 22 22 22 22 22 22 22 22 22 22 22 21 22 22 23 23 24 25 26 26 26 26 26 26 27
27 26 26 26 25 26 26 25 25 24 24 24 25 25 25 25 25 24 23 23 24 23 23 23 23 23 23 23 22 22 23 23 24 25 26 26 26 26 26 26 25 25 26
27 26 25 25 25 25 25 25 24 24 24 24 25 26 27 26 26 26 24 24 24 24 24 24 24 24 24 24 24 24 25 25 26 26 27 27 27 27 26 26 26 26 27
27 26 26 26 26 25 25 24 25 25 24 24 25 27 28 28 27 26 25 25 25 25 25 24 24 25 25 25 25 25 25 26 26 26 26 26 26 27 27 27 27 27 27
28 27 26 26 26 26 25 25 25 25 25 24 25 26 26 26 26 26 26 26 25 25 25 25 25 25 25 26 26 26 26 25 26 26 26 26 26 27 28 28 28 29 29
29 28 27 27 27 27 26 26 26 26 25 25 25 25 26 26 26 26 27 27 26 25 25 25 24 25 25 26 27 27 27 26 27 27 28 27 27 28 29 29 30 30 31
28 28 28 28 28 28 28 28 28 27 26 26 26 26 26 26 26 27 26 27 27 26 26 25 25 25 26 26 27 27 27 27 27 27 27 27 28 29 29 29 30 30 31
28 29 29 28 28 28 28 28 28 26 25 25 25 25 25 25 26 26 25 26 27 26 26 26 26 26 26 26 26 27 27 27 27 28 28 28 28 28 28 29 29 30 31
29 28 28 28 28 27 27 27 26 25 24 24 25 25 25 25 24 25 25 26 26 25 26 26 26 26 26 26 27 27 28 28 27 27 28 28 27 27 28 29 30 30 30
28 28 27 27 26 25 26 26 26 25 23 24 24 25 24 24 25 25 25 25 25 26 26 26 26 26 26 26 26 26 27 28 28 27 27 26 26 27 28 28 29 29 30
26 26 26 25 25 25 25 25 25 24 24 24 24 25 25 25 24 24 25 25 25 26 26 26 26 27 26 26 26 26 26 27 27 27 26 26 27 27 28 28 28 29 29
23 24 24 24 25 24 24 24 25 25 25 23 23 23 24 23 24 24 24 25 25 25 27 27 27 27 27 27 27 27 27 27 27 27 27 27 27 27 28 28 28 29 29

GEFSMW_500_meanwind_294.txt.gz
Wind_Speed
16 16 16 16 15 15 15 15 15 15 15 15 15 15 15 15 15 16 16 16 15 15 15 14 14 14 14 14 15 15 15 15 14 14 14 14 15 15 15 15 14 15 16
17 16 17 18 17 17 16 16 16 16 16 17 17 17 17 16 16 16 16 16 16 15 15 14 14 14 15 15 15 15 15 16 16 16 16 15 15 16 16 17 17 17 17
19 18 18 18 18 18 17 17 17 17 17 18 19 18 17 17 16 16 16 16 16 15 15 15 15 15 15 15 15 16 16 16 16 17 17 17 17 18 18 18 19 19 19
20 20 19 18 18 18 19 18 18 17 18 18 18 16 16 16 16 16 16 16 16 16 16 16 16 16 16 16 16 17 17 17 17 17 18 18 18 18 19 20 20 20 20
20 20 19 19 19 19 19 20 19 18 19 18 17 16 16 15 16 16 15 16 16 16 16 16 16 16 17 17 17 17 18 18 17 18 18 19 20 20 20 20 20 21 22
21 21 20 20 20 20 20 21 20 19 19 19 17 16 16 16 15 16 16 16 16 16 16 17 17 17 17 18 18 18 18 19 19 18 19 20 20 20 21 21 21 22 23
22 21 21 21 20 21 22 22 21 21 20 19 17 16 16 16 16 16 16 16 16 17 17 18 18 18 18 19 19 19 19 20 20 20 20 21 21 21 22 23 23 23 23
22 22 21 21 22 22 23 23 22 22 21 19 18 17 17 16 17 17 17 17 18 18 18 19 19 19 19 19 19 20 20 20 20 20 21 21 22 23 23 23 23 23 24
22 22 22 22 22 23 23 23 22 22 21 20 19 19 18 18 18 18 18 18 19 19 19 19 19 19 20 20 20 20 20 20 21 21 22 22 22 23 23 24 24 24 24
23 23 23 23 23 22 23 24 23 23 22 21 20 20 20 19 19 19 19 19 19 19 18 18 19 19 19 19 20 20 20 20 20 21 21 21 22 22 23 23 24 24 25
24 25 24 24 24 24 24 25 24 24 23 23 22 22 21 21 22 22 21 21 20 20 19 19 19 19 20 20 21 21 21 22 22 22 22 22 22 23 23 23 23 24 25
25 25 25 25 25 25 25 26 25 24 24 24 24 23 23 23 23 23 23 23 22 21 21 21 21 21 21 21 22 22 22 23 23 23 23 23 23 23 23 23 23 24 24
26 26 25 25 25 26 26 26 25 25 24 25 25 24 24 24 24 24 24 24 24 22 22 22 22 22 21 22 23 23 23 24 24 24 24 24 24 25 25 25 25 25 25
26 26 25 26 26 26 26 26 26 25 25 25 25 25 24 24 24 24 24 24 24 24 23 23 23 23 23 23 23 23 24 25 25 25 25 25 25 25 26 26 26 26 26
26 26 26 26 26 26 26 26 26 26 25 25 25 25 24 24 24 24 25 25 25 24 24 24 24 24 24 25 25 25 24 24 24 25 26 26 26 27 26 26 26 26 25
27 27 27 27 27 27 27 26 26 26 25 25 25 25 25 25 25 25 26 26 26 26 26 26 25 25 25 25 25 25 25 25 25 25 26 27 27 27 26 26 27 27 26
27 28 27 27 27 27 27 27 27 26 26 26 26 25 26 26 26 26 26 27 27 27 26 27 27 26 27 26 26 26 26 26 26 26 26 26 26 26 26 26 26 26 27
28 28 27 27 28 28 28 28 27 27 27 27 27 27 27 27 27 27 27 27 27 27 28 28 28 28 28 28 28 27 27 26 26 26 26 27 27 27 27 27 27 27 27
27 26 26 27 27 28 28 28 28 28 28 28 28 28 28 27 26 26 27 27 27 28 28 29 28 28 28 29 29 29 28 27 26 27 28 28 28 28 28 27 27 27 27
27 27 27 27 27 27 27 27 27 28 28 28 28 28 28 26 26 27 27 27 27 27 27 28 28 29 29 28 28 28 28 28 28 28 28 29 29 29 28 28 27 28 28
28 28 28 28 27 27 27 27 27 27 28 27 27 28 28 28 27 28 27 28 27 27 27 27 28 29 29 28 28 29 29 29 28 28 28 29 28 28 29 29 29 30 30
29 29 29 28 28 27 27 27 26 26 27 27 27 28 29 29 28 28 28 27 27 26 26 27 28 28 29 29 29 29 30 29 29 28 28 28 28 28 28 29 30 30 30
28 28 28 28 28 27 26 26 26 26 27 27 27 28 29 29 28 29 28 28 27 26 26 27 27 27 28 28 29 29 30 29 29 29 29 29 29 29 29 29 29 29 30
28 28 27 27 26 27 27 26 26 27 27 27 28 28 27 27 28 27 28 27 27 27 27 27 27 27 27 27 27 28 28 28 28 29 29 30 30 29 28 28 28 29 29
26 27 27 27 26 26 26 26 27 27 27 27 27 26 26 26 27 27 27 27 28 28 27 27 26 26 26 26 26 27 28 28 29 29 29 29 29 29 29 29 28 29 29
26 26 27 26 26 26 26 26 26 26 26 26 26 26 27 27 27 27 27 27 27 27 27 27 26 25 25 26 25 25 26 28 28 28 28 29 29 29 28 28 28 28 29

GEFSMW_500_meanwind_300.txt.gz
Wind_Speed
17 17 17 16 16 16 17 16 16 16 16 17 17 17 17 17 16 16 15 15 14 14 14 14 14 14 14 13 13 13 13 13 13 13 13 13 13 13 14 14 14 14 14
18 18 17 17 17 18 18 17 17 18 18 18 18 18 18 17 17 17 17 17 15 15 15 14 13 14 14 15 14 14 13 14 15 14 14 14 14 14 15 15 15 15 16
19 18 18 16 17 18 18 18 19 19 19 19 19 19 19 18 17 17 17 16 15 14 14 13 13 13 14 14 15 15 15 15 15 15 15 15 15 15 16 16 16 16 17
20 20 20 17 17 18 18 18 19 20 19 19 19 19 19 19 18 17 17 17 16 15 14 14 14 14 14 14 15 16 16 16 16 17 16 16 17 17 17 16 17 18 18
21 20 21 19 18 18 18 19 19 20 19 20 20 20 20 19 18 17 17 16 15 15 15 15 15 15 15 16 16 16 17 17 17 17 17 17 18 18 18 17 18 18 19
21 22 21 20 20 20 20 20 21 21 20 20 20 20 19 20 18 17 16 16 15 15 16 16 16 16 17 17 17 17 17 18 18 18 18 18 19 19 19 19 19 19 20
22 22 22 23 23 22 22 22 22 21 20 21 20 20 20 20 19 17 17 16 16 17 17 17 17 18 18 18 18 17 18 19 18 18 18 19 20 20 20 20 20 20 20
22 23 23 24 24 24 23 23 22 22 22 22 21 20 21 21 20 19 18 17 17 18 19 19 19 19 19 18 18 17 17 18 18 19 19 20 20 20 20 20 20 20 20
23 23 24 24 24 25 23 23 23 23 23 23 23 22 22 21 20 19 19 19 19 19 20 20 20 20 20 20 19 18 18 19 19 19 20 21 21 22 22 21 21 21 21
25 25 26 26 26 25 25 25 24 23 24 24 24 24 23 22 21 21 20 20 20 20 21 21 21 21 21 20 20 19 19 20 20 20 21 22 23 23 23 22 22 22 22
27 27 27 27 26 25 26 26 25 25 25 25 25 24 23 23 22 22 22 22 22 21 22 22 22 22 22 21 21 20 20 21 21 22 22 23 24 24 24 23 23 23 24
27 27 27 27 26 27 27 27 27 26 26 25 25 25 24 24 23 23 23 24 24 23 24 24 24 24 23 22 22 22 21 21 21 22 23 23 24 24 24 24 24 24 25
27 28 28 28 28 28 27 27 28 27 27 27 27 26 25 24 24 24 25 25 25 25 25 25 25 25 25 24 23 23 22 22 22 23 23 23 23 23 24 25 25 25 25
29 28 28 29 29 28 28 28 28 28 28 28 27 26 26 25 25 25 25 26 26 26 26 26 25 25 25 25 24 23 23 23 23 23 23 23 22 22 22 24 24 25 25
29 28 28 29 29 29 29 29 29 29 28 28 27 26 26 26 26 26 27 27 27 27 27 26 26 26 26 25 24 24 24 24 24 24 23 24 24 23 23 24 25 25 25
31 29 29 29 30 30 30 29 29 29 29 28 27 27 27 28 27 27 27 27 27 27 27 26 26 26 25 25 25 25 25 25 25 25 25 25 24 24 24 25 26 26 26
32 30 29 29 29 30 29 29 29 29 28 28 28 28 28 28 29 28 28 27 27 27 27 27 27 27 25 25 26 26 26 26 26 26 26 26 26 26 26 26 27 27 27
30 30 29 29 29 29 28 28 28 29 29 29 29 29 28 29 29 28 29 29 29 29 28 27 27 27 26 26 27 27 27 27 27 26 26 26 27 27 27 28 28 28 28
31 30 30 29 29 28 28 28 27 28 28 29 29 29 30 30 30 29 29 29 29 29 28 27 26 26 27 27 27 27 27 27 26 26 26 26 27 27 28 28 28 28 28
31 30 29 29 29 28 27 27 27 27 28 28 29 29 29 30 30 30 30 29 28 28 28 28 27 27 27 26 27 27 27 27 27 27 27 27 27 27 28 28 28 29 30
30 30 29 28 28 27 27 27 27 27 27 28 28 28 29 29 29 29 29 28 28 27 27 27 27 26 26 26 27 27 27 27 28 28 28 28 28 28 28 29 30 30 31
30 29 29 28 27 27 27 27 27 28 28 28 28 28 28 28 28 29 28 28 28 28 27 27 27 27 27 26 27 27 27 28 28 29 29 28 29 29 29 30 30 31 31
30 29 28 28 27 27 27 27 27 27 28 28 27 28 28 28 28 28 29 29 28 28 28 28 27 27 27 27 27 27 27 28 28 28 29 29 29 29 30 30 30 31 30
28 29 29 28 28 28 28 27 27 27 27 27 27 27 28 28 28 28 28 28 28 28 28 28 28 27 27 27 27 27 28 28 28 29 29 29 29 29 29 30 30 30 30
29 28 28 28 28 28 28 28 27 28 28 28 28 28 27 28 28 28 28 28 28 28 28 28 27 27 27 27 27 27 27 28 28 28 28 29 29 29 29 28 28 29 29
28 28 28 27 27 27 27 27 27 27 27 27 27 27 27 27 27 27 28 28 27 27 28 28 27 28 28 28 28 28 28 29 29 29 29 29 29 29 29 28 28 29 29